CW1648 Weather Reports


time (UTC)temp
C
wind
direction
speed
KPH
gust
KPH
rain 1hr
cm
rain 24hr
cm
rain mn
cm
humidity
%
barometer
mb
20260906133543 22 105 0.0 0.0 0.00 0.00 0.00 74 1008.0
20260906133336 22 90 0.0 0.0 0.00 0.00 0.00 75 1007.9
20260906133236 22 337 0.0 0.0 0.00 0.00 0.00 74 1007.7
20260906133158 22 337 0.0 0.0 0.00 0.00 0.00 74 1008.0
20260906133044 22 332 0.0 0.0 0.00 0.00 0.00 74 1008.1
20260906132921 22 84 0.0 0.0 0.00 0.00 0.00 76 1008.3
20260906132835 22 84 0.0 0.0 0.00 0.00 0.00 74 1008.1
20260906132816 22 84 0.0 0.0 0.00 0.00 0.00 76 1008.4
20260906132809 22 84 0.0 0.0 0.00 0.00 0.00 76 1008.2
20260906132655 22 84 0.0 0.0 0.00 0.00 0.00 76 1008.2
20260906132650 22 84 0.0 0.0 0.00 0.00 0.00 76 1008.3
20260906132544 22 84 0.0 0.0 0.00 0.00 0.00 76 1008.2
20260906132331 22 332 0.0 0.0 0.00 0.00 0.00 78 1008.2
20260906132231 21 331 0.0 0.0 0.00 0.00 0.00 78 1008.2
20260906132200 21 331 0.0 0.0 0.00 0.00 0.00 78 1008.3
20260906132131 21 331 0.0 0.0 0.00 0.00 0.00 78 1008.3
20260906132059 21 331 0.0 0.0 0.00 0.00 0.00 77 1008.2
20260906132045 21 333 0.0 0.0 0.00 0.00 0.00 78 1008.3
20260906132040 21 331 0.0 0.0 0.00 0.00 0.00 77 1008.2
20260906131830 21 332 0.0 0.0 0.00 0.00 0.00 78 1008.5
20260906131730 21 332 0.0 0.0 0.00 0.00 0.00 78 1008.4
20260906131700 21 332 0.0 0.0 0.00 0.00 0.00 78 1008.4
20260906131630 21 332 0.0 0.0 0.00 0.00 0.00 77 1008.4
20260906131543 21 334 0.0 0.0 0.00 0.00 0.00 79 1008.4
20260906131529 21 334 0.0 0.0 0.00 0.00 0.00 79 1008.4
20260906131429 21 106 0.0 0.0 0.00 0.00 0.00 78 1008.5
20260906131327 21 107 0.0 0.0 0.00 0.00 0.00 79 1008.3
20260906131226 21 88 0.0 0.0 0.00 0.00 0.00 80 1008.4
20260906131200 21 89 0.0 0.0 0.00 0.00 0.00 80 1008.6
20260906131139 21 264 0.0 0.0 0.00 0.00 0.00 80 1008.6
20260906131134 21 264 0.0 0.0 0.00 0.00 0.00 80 1008.6
20260906131028 21 264 0.0 0.0 0.00 0.00 0.00 80 1008.5
20260906130924 21 264 0.0 0.0 0.00 0.00 0.00 80 1008.6
20260906130824 21 264 0.0 0.0 0.00 0.00 0.00 81 1008.9
20260906130723 21 264 0.0 0.0 0.00 0.00 0.00 82 1009.3
20260906130700 21 264 0.0 0.0 0.00 0.00 0.00 82 1008.7
20260906130637 20 264 0.0 0.0 0.00 0.00 0.00 83 1008.9
20260906130631 20 264 0.0 0.0 0.00 0.00 0.00 82 1008.7
20260906130528 20 264 0.0 0.0 0.00 0.00 0.00 83 1008.9
20260906130450 20 264 0.0 0.0 0.00 0.00 0.00 83 1008.9
20260906130446 20 264 0.0 0.0 0.00 0.00 0.00 83 1009.1
20260906130442 20 264 0.0 0.0 0.00 0.00 0.00 83 1009.0
20260906130159 20 264 0.0 0.0 0.00 0.00 0.00 82 1008.9
20260906130123 20 264 0.0 0.0 0.00 0.00 0.00 82 1008.9
20260906130028 20 264 0.0 0.0 0.00 0.00 0.00 83 1011.5
20260906130022 20 264 0.0 0.0 0.00 0.00 0.00 83 1008.8
20260906125922 20 264 0.0 0.0 0.00 0.00 0.00 83 1011.5
20260906125821 20 264 0.0 0.0 0.00 0.00 0.00 83 1011.5
20260906125719 20 264 0.0 0.0 0.00 0.00 0.00 84 1011.5
20260906125658 20 264 0.0 0.0 0.00 0.00 0.00 84 1011.9
20260906125619 20 263 0.0 0.0 0.00 0.00 0.00 84 1011.9
20260906125543 20 325 0.0 0.0 0.00 0.00 0.00 85 1012.2
20260906125516 20 325 0.0 0.0 0.00 0.00 0.00 85 1012.1
20260906125413 20 325 0.0 0.0 0.00 0.00 0.00 85 1012.2
20260906125312 20 325 0.0 0.0 0.00 0.00 0.00 86 1012.2
20260906125212 20 326 0.0 0.0 0.00 0.00 0.00 86 1012.2
20260906125158 20 326 0.0 0.0 0.00 0.00 0.00 86 1012.2
20260906125113 20 327 0.0 0.0 0.00 0.00 0.00 85 1012.2
20260906125028 20 327 0.0 0.0 0.00 0.00 0.00 86 1012.2
20260906125011 20 327 0.0 0.0 0.00 0.00 0.00 86 1012.1
20260906124925 19 331 0.0 0.0 0.00 0.00 0.00 88 1012.2
20260906124919 20 320 0.0 0.0 0.00 0.00 0.00 88 1012.2
20260906124710 19 331 0.0 0.0 0.00 0.00 0.00 89 1012.2
20260906124657 19 331 0.0 0.0 0.00 0.00 0.00 89 1012.2
20260906124609 19 331 0.0 0.0 0.00 0.00 0.00 89 1012.2
20260906124529 19 331 0.0 0.0 0.00 0.00 0.00 89 1012.2
20260906124509 19 331 0.0 0.0 0.00 0.00 0.00 89 1012.2
20260906124409 19 331 0.0 0.0 0.00 0.00 0.00 89 1012.2
20260906124308 19 331 0.0 0.0 0.00 0.00 0.00 90 1012.2
20260906124208 19 332 0.0 0.0 0.00 0.00 0.00 91 1012.1
20260906124155 18 332 0.0 0.0 0.00 0.00 0.00 91 1012.2
20260906124108 18 332 0.0 0.0 0.00 0.00 0.00 91 1012.2
20260906124028 18 332 0.0 0.0 0.00 0.00 0.00 91 1012.1
20260906124007 18 332 0.0 0.0 0.00 0.00 0.00 91 1012.2
20260906123907 18 333 0.0 0.0 0.00 0.00 0.00 92 1012.1
20260906123807 18 333 0.0 0.0 0.00 0.00 0.00 92 1012.1
20260906123706 18 333 0.0 0.0 0.00 0.00 0.00 92 1012.2
20260906123652 18 333 0.0 0.0 0.00 0.00 0.00 92 1012.2
20260906123606 18 333 0.0 0.0 0.00 0.00 0.00 92 1012.1
20260906123528 18 333 0.0 0.0 0.00 0.00 0.00 92 1012.1
20260906123506 18 333 0.0 0.0 0.00 0.00 0.00 92 1012.1
20260906123427 18 333 0.0 0.0 0.00 0.00 0.00 93 1012.1
20260906123423 18 333 0.0 0.0 0.00 0.00 0.00 93 1012.2
20260906123417 18 333 0.0 0.0 0.00 0.00 0.00 93 1012.1
20260906123259 18 333 0.0 0.0 0.00 0.00 0.00 93 1012.2
20260906123102 18 333 0.0 0.0 0.00 0.00 0.00 93 1012.2
20260906123033 18 340 0.0 0.0 0.00 0.00 0.00 94 1012.2
20260906123028 18 340 0.0 0.0 0.00 0.00 0.00 94 1012.2
20260906122921 17 342 0.0 0.0 0.00 0.00 0.00 94 1012.1
20260906122916 18 341 0.0 0.0 0.00 0.00 0.00 94 1012.1
20260906122907 18 341 0.0 0.0 0.00 0.00 0.00 94 1012.1
20260906122601 17 232 0.0 0.0 0.00 0.00 0.00 94 1012.1
20260906122529 17 232 0.0 0.0 0.00 0.00 0.00 95 1012.2
20260906122514 17 232 0.0 0.0 0.00 0.00 0.00 95 1012.1
20260906122510 17 232 0.0 0.0 0.00 0.00 0.00 95 1012.1
20260906122300 17 232 0.0 0.0 0.00 0.00 0.00 95 1012.0
20260906122149 17 232 0.0 0.0 0.00 0.00 0.00 95 1012.0
20260906122059 17 232 0.0 0.0 0.00 0.00 0.00 95 1012.0
20260906122028 17 232 0.0 0.0 0.00 0.00 0.00 95 1012.1
20260906121959 17 232 0.0 0.0 0.00 0.00 0.00 95 1012.0
20260906121859 17 232 0.0 0.0 0.00 0.00 0.00 95 1012.0
20260906121757 17 232 0.0 0.0 0.00 0.00 0.00 96 1012.0
20260906121657 17 232 0.0 0.0 0.00 0.00 0.00 96 1012.0
20260906121647 17 230 0.0 0.0 0.00 0.00 0.00 96 1012.0
20260906121557 17 230 0.0 0.0 0.00 0.00 0.00 96 1012.0
20260906121529 17 230 0.0 0.0 0.00 0.00 0.00 96 1012.1
20260906121457 17 230 0.0 0.0 0.00 0.00 0.00 96 1012.0
20260906121357 17 230 0.0 0.0 0.00 0.00 0.00 96 1012.1
20260906121256 17 230 0.0 0.0 0.00 0.00 0.00 96 1012.1
20260906121145 17 230 0.0 0.0 0.00 0.00 0.00 96 1012.1
20260906121123 17 230 0.0 0.0 0.00 0.00 0.00 96 1012.1
20260906121118 17 230 0.0 0.0 0.00 0.00 0.00 96 1012.1
20260906121114 17 230 0.0 0.0 0.00 0.00 0.00 96 1012.1
20260906121029 17 230 0.0 0.0 0.00 0.00 0.00 96 1012.2
20260906120753 17 230 0.0 0.0 0.00 0.00 0.00 97 1012.1
20260906120653 17 230 0.0 0.0 0.00 0.00 0.00 96 1012.1
20260906120643 17 230 0.0 0.0 0.00 0.00 0.00 96 1012.1
20260906120606 17 230 0.0 0.0 0.00 0.00 0.00 97 1012.1
20260906120602 17 230 0.0 0.0 0.00 0.00 0.00 97 1012.1
20260906120529 17 230 0.0 0.0 0.00 0.00 0.00 97 1012.2
20260906120353 17 230 0.0 0.0 0.00 0.00 0.00 97 1012.1
20260906120252 17 230 0.0 0.0 0.00 0.00 0.00 97 1012.1
20260906120143 17 230 0.0 0.0 0.00 0.00 0.00 97 1012.0
20260906120126 17 230 0.0 0.0 0.00 0.00 0.00 97 1012.0
20260906120121 17 230 0.0 0.0 0.00 0.00 0.00 97 1012.1
20260906120028 17 230 0.0 0.0 0.00 0.00 0.00 97 1012.1
20260906120008 17 230 0.0 0.0 0.00 0.00 0.00 97 1012.0
20260906115642 16 230 0.0 0.0 0.00 0.00 0.00 97 1012.0
20260906115548 16 230 0.0 0.0 0.00 0.00 0.00 97 1012.1
20260906115543 16 230 0.0 0.0 0.00 0.00 0.00 97 1012.2
20260906115449 16 230 0.0 0.0 0.00 0.00 0.00 97 1012.1
20260906115348 16 230 0.0 0.0 0.00 0.00 0.00 97 1012.1
20260906115248 16 230 0.0 0.0 0.00 0.00 0.00 97 1012.1
20260906115206 16 230 0.0 0.0 0.00 0.00 0.00 97 1012.2
20260906115154 16 230 0.0 0.0 0.00 0.00 0.00 97 1012.2
20260906115028 16 230 0.0 0.0 0.00 0.00 0.00 97 1012.4
20260906115000 16 230 0.0 0.0 0.00 0.00 0.00 97 1012.2
20260906114956 16 230 0.0 0.0 0.00 0.00 0.00 97 1012.3
20260906114746 16 230 0.0 0.0 0.00 0.00 0.00 97 1012.3
20260906114638 16 230 0.0 0.0 0.00 0.00 0.00 97 1012.3
20260906114607 16 230 0.0 0.0 0.00 0.00 0.00 97 1012.3
20260906114529 16 230 0.0 0.0 0.00 0.00 0.00 97 1012.3
20260906114453 16 230 0.0 0.0 0.00 0.00 0.00 97 1012.2
20260906114258 15 230 0.0 0.0 0.00 0.00 0.00 97 1012.2
20260906114253 15 230 0.0 0.0 0.00 0.00 0.00 97 1012.3
20260906114136 15 230 0.0 0.0 0.00 0.00 0.00 97 1012.2
20260906114043 15 230 0.0 0.0 0.00 0.00 0.00 97 1012.2
20260906114028 15 230 0.0 0.0 0.00 0.00 0.00 97 1012.3
20260906113942 15 230 0.0 0.0 0.00 0.00 0.00 97 1012.2
20260906113840 15 230 0.0 0.0 0.00 0.00 0.00 97 1012.1
20260906113740 15 230 0.0 0.0 0.00 0.00 0.00 97 1012.1
20260906113638 15 230 0.0 0.0 0.00 0.00 0.00 97 1012.1
20260906113540 15 230 0.0 0.0 0.00 0.00 0.00 97 1012.1
20260906113529 15 230 0.0 0.0 0.00 0.00 0.00 97 1012.2
20260906113452 15 230 0.0 0.0 0.00 0.00 0.00 97 1012.1
20260906113448 15 230 0.0 0.0 0.00 0.00 0.00 97 1012.1
20260906113238 15 230 0.0 0.0 0.00 0.00 0.00 97 1012.1
20260906113157 15 230 0.0 0.0 0.00 0.00 0.00 97 1012.1
20260906113146 15 230 0.0 0.0 0.00 0.00 0.00 97 1012.1
20260906113028 15 230 0.0 0.0 0.00 0.00 0.00 97 1012.1
20260906112938 15 230 0.0 0.0 0.00 0.00 0.00 97 1012.0
20260906112850 15 230 0.0 0.0 0.00 0.00 0.00 97 1012.0
20260906112846 15 230 0.0 0.0 0.00 0.00 0.00 97 1012.1
20260906112708 15 230 0.0 0.0 0.00 0.00 0.00 97 1011.9
20260906112704 15 231 0.0 0.0 0.00 0.00 0.00 97 1011.9
20260906112652 15 230 0.0 0.0 0.00 0.00 0.00 97 1012.0
20260906112543 15 231 0.0 0.0 0.00 0.00 0.00 97 1012.0
20260906112335 14 231 0.0 0.0 0.00 0.00 0.00 97 1011.8
20260906112234 14 231 0.0 0.0 0.00 0.00 0.00 97 1011.8
20260906112152 14 230 0.0 0.0 0.00 0.00 0.00 97 1011.8
20260906112141 14 231 0.0 0.0 0.00 0.00 0.00 97 1011.8
20260906112029 14 230 0.0 0.0 0.00 0.00 0.00 97 1012.0
20260906111933 14 230 0.0 0.0 0.00 0.00 0.00 97 1011.8
20260906111840 14 230 0.0 0.0 0.00 0.00 0.00 96 1011.8
20260906111633 14 230 0.0 0.0 0.00 0.00 0.00 96 1011.8
20260906111543 14 230 0.0 0.0 0.00 0.00 0.00 96 1011.8
20260906111539 14 230 0.0 0.0 0.00 0.00 0.00 96 1011.8
20260906111529 14 230 0.0 0.0 0.00 0.00 0.00 96 1012.0
20260906111329 14 230 0.0 0.0 0.00 0.00 0.00 96 1011.7
20260906111229 14 230 0.0 0.0 0.00 0.00 0.00 96 1011.7
20260906111130 14 230 0.0 0.0 0.00 0.00 0.00 96 1011.7
20260906111029 14 230 0.0 0.0 0.00 0.00 0.00 96 1011.7
20260906110929 14 230 0.0 0.0 0.00 0.00 0.00 96 1011.7
20260906110829 14 230 0.0 0.0 0.00 0.00 0.00 96 1011.7
20260906110726 14 230 0.0 0.0 0.00 0.00 0.00 97 1011.7
20260906110625 14 230 0.0 0.0 0.00 0.00 0.00 97 1011.6
20260906110529 14 230 0.0 0.0 0.00 0.00 0.00 96 1011.8
20260906110525 14 230 0.0 0.0 0.00 0.00 0.00 96 1011.7
20260906110424 13 230 0.0 0.0 0.00 0.00 0.00 96 1011.6
20260906110324 13 230 0.0 0.0 0.00 0.00 0.00 96 1011.6
20260906110223 13 230 0.0 0.0 0.00 0.00 0.00 96 1011.6
20260906110124 13 230 0.0 0.0 0.00 0.00 0.00 96 1011.6
20260906110029 13 230 0.0 0.0 0.00 0.00 0.00 96 1011.8
20260906110023 13 230 0.0 0.0 0.00 0.00 0.00 96 1011.6
20260906110008 13 230 0.0 0.0 0.00 0.00 0.00 96 1011.6
20260906110004 13 230 0.0 0.0 0.00 0.00 0.00 96 1011.6
20260906110000 13 230 0.0 0.0 0.00 0.00 0.00 96 1011.6
20260906105954 13 230 0.0 0.0 0.00 0.00 0.00 96 1011.6
20260906105727 13 230 0.0 0.0 0.00 0.00 0.00 96 1011.6
20260906105557 13 230 0.0 0.0 0.00 0.00 0.00 96 1011.5
20260906105552 13 230 0.0 0.0 0.00 0.00 0.00 96 1011.6
20260906105529 13 230 0.0 0.0 0.00 0.00 0.00 96 1011.7
20260906105329 13 230 0.0 0.0 0.00 0.00 0.00 96 1011.5
20260906105119 13 230 0.0 0.0 0.00 0.00 0.00 96 1011.5
20260906105044 13 230 0.0 0.0 0.00 0.00 0.00 96 1011.6
20260906105019 13 230 0.0 0.0 0.00 0.00 0.00 96 1011.4
20260906104919 13 230 0.0 0.0 0.00 0.00 0.00 96 1011.4
20260906104818 13 230 0.0 0.0 0.00 0.00 0.00 96 1011.4
20260906104731 13 230 0.0 0.0 0.00 0.00 0.00 96 1011.4
20260906104722 13 230 0.0 0.0 0.00 0.00 0.00 96 1011.4
20260906104529 13 230 0.0 0.0 0.00 0.00 0.00 96 1011.6
20260906104516 13 230 0.0 0.0 0.00 0.00 0.00 96 1011.4
20260906104415 13 230 0.0 0.0 0.00 0.00 0.00 96 1011.4
20260906104348 13 230 0.0 0.0 0.00 0.00 0.00 96 1011.4
20260906104314 13 230 0.0 0.0 0.00 0.00 0.00 96 1011.4
20260906104233 13 230 0.0 0.0 0.00 0.00 0.00 96 1011.4
20260906104112 13 230 0.0 0.0 0.00 0.00 0.00 96 1011.4
20260906104029 13 230 0.0 0.0 0.00 0.00 0.00 96 1011.5
20260906104010 13 230 0.0 0.0 0.00 0.00 0.00 96 1011.3
20260906103910 13 230 0.0 0.0 0.00 0.00 0.00 96 1011.3
20260906103810 13 230 0.0 0.0 0.00 0.00 0.00 96 1011.3
20260906103709 13 230 0.0 0.0 0.00 0.00 0.00 96 1011.3
20260906103608 13 230 0.0 0.0 0.00 0.00 0.00 96 1011.3
20260906103529 13 230 0.0 0.0 0.00 0.00 0.00 96 1011.4
20260906103508 13 230 0.0 0.0 0.00 0.00 0.00 96 1011.3
20260906103408 13 230 0.0 0.0 0.00 0.00 0.00 96 1011.2
20260906103334 13 230 0.0 0.0 0.00 0.00 0.00 96 1011.2
20260906103221 13 230 0.0 0.0 0.00 0.00 0.00 96 1011.2
20260906103212 13 230 0.0 0.0 0.00 0.00 0.00 96 1011.2
20260906103029 13 230 0.0 0.0 0.00 0.00 0.00 96 1011.3
20260906103006 13 230 0.0 0.0 0.00 0.00 0.00 96 1011.1
20260906102905 13 230 0.0 0.0 0.00 0.00 0.00 96 1011.1
20260906102842 13 230 0.0 0.0 0.00 0.00 0.00 96 1011.1
20260906102805 13 230 0.0 0.0 0.00 0.00 0.00 96 1011.1
20260906102730 13 230 0.0 0.0 0.00 0.00 0.00 96 1011.1
20260906102604 13 230 0.0 0.0 0.00 0.00 0.00 96 1011.1
20260906102529 13 230 0.0 0.0 0.00 0.00 0.00 96 1011.3
20260906102515 13 230 0.0 0.0 0.00 0.00 0.00 96 1011.1
20260906102512 13 230 0.0 0.0 0.00 0.00 0.00 96 1011.1
20260906102305 13 230 0.0 0.0 0.00 0.00 0.00 96 1011.1
20260906102202 13 230 0.0 0.0 0.00 0.00 0.00 96 1011.1
20260906102122 13 230 0.0 0.0 0.00 0.00 0.00 96 1011.1
20260906102114 13 230 0.0 0.0 0.00 0.00 0.00 96 1011.2
20260906102110 13 230 0.0 0.0 0.00 0.00 0.00 96 1011.1
20260906102029 13 230 0.0 0.0 0.00 0.00 0.00 96 1011.4
20260906101914 13 230 0.0 0.0 0.00 0.00 0.00 96 1011.1
20260906101910 13 230 0.0 0.0 0.00 0.00 0.00 96 1011.1
20260906101700 13 230 0.0 0.0 0.00 0.00 0.00 96 1011.2
20260906101620 13 230 0.0 0.0 0.00 0.00 0.00 96 1011.2
20260906101613 13 230 0.0 0.0 0.00 0.00 0.00 96 1011.1
20260906101608 13 230 0.0 0.0 0.00 0.00 0.00 96 1011.1
20260906101529 13 230 0.0 0.0 0.00 0.00 0.00 96 1011.3
20260906101400 13 230 0.0 0.0 0.00 0.00 0.00 96 1011.1
20260906101259 13 230 0.0 0.0 0.00 0.00 0.00 96 1011.1
20260906101158 13 230 0.0 0.0 0.00 0.00 0.00 96 1011.1
20260906101118 13 230 0.0 0.0 0.00 0.00 0.00 96 1011.1
20260906101110 13 230 0.0 0.0 0.00 0.00 0.00 96 1011.1
20260906101106 13 230 0.0 0.0 0.00 0.00 0.00 96 1011.1
20260906101029 13 230 0.0 0.0 0.00 0.00 0.00 96 1011.3
20260906100857 13 230 0.0 0.0 0.00 0.00 0.00 96 1011.1
20260906100840 13 230 0.0 0.0 0.00 0.00 0.00 96 1011.0
20260906100835 13 230 0.0 0.0 0.00 0.00 0.00 96 1011.0
20260906100556 13 230 0.0 0.0 0.00 0.00 0.00 96 1011.1
20260906100529 13 230 0.0 0.0 0.00 0.00 0.00 96 1011.2
20260906100503 13 230 0.0 0.0 0.00 0.00 0.00 96 1011.0
20260906100459 13 230 0.0 0.0 0.00 0.00 0.00 96 1011.0
20260906100448 13 230 0.0 0.0 0.00 0.00 0.00 96 1011.0
20260906100442 13 230 0.0 0.0 0.00 0.00 0.00 96 1011.0
20260906100055 13 230 0.0 0.0 0.00 0.00 0.00 96 1010.9
20260906100028 13 230 0.0 0.0 0.00 0.00 0.00 96 1011.0
20260906095954 13 230 0.0 0.0 0.00 0.00 0.00 96 1010.8
20260906095927 13 308 0.0 0.0 0.00 0.00 0.00 96 1010.8
20260906095854 13 230 0.0 0.0 0.00 0.00 0.00 96 1010.9
20260906095822 13 308 0.0 0.0 0.00 0.00 0.00 96 1010.9
20260906095816 13 308 0.0 0.0 0.00 0.00 0.00 96 1010.9
20260906095807 13 308 0.0 0.0 0.00 0.00 0.00 96 1010.8
20260906095529 13 308 0.0 0.0 0.00 0.00 0.00 96 1011.0
20260906095452 13 308 0.0 0.0 0.00 0.00 0.00 96 1010.8
20260906095352 13 308 0.0 0.0 0.00 0.00 0.00 96 1010.8
20260906095305 13 308 0.0 0.0 0.00 0.00 0.00 96 1010.7
20260906095258 13 308 0.0 0.0 0.00 0.00 0.00 96 1010.8
20260906095113 13 308 0.0 0.0 0.00 0.00 0.00 96 1010.7
20260906095049 13 308 0.0 0.0 0.00 0.00 0.00 96 1010.7
20260906095029 13 308 0.0 0.0 0.00 0.00 0.00 96 1010.9
20260906095004 13 308 0.0 0.0 0.00 0.00 0.00 96 1010.7
20260906095000 13 308 0.0 0.0 0.00 0.00 0.00 96 1010.7
20260906094748 13 308 0.0 0.0 0.00 0.00 0.00 96 1010.6
20260906094707 13 308 0.0 0.0 0.00 0.00 0.00 96 1010.6
20260906094556 13 308 0.0 0.0 0.00 0.00 0.00 96 1010.7
20260906094529 13 308 0.0 0.0 0.00 0.00 0.00 96 1010.9
20260906094347 13 308 0.0 0.0 0.00 0.00 0.00 96 1010.7
20260906094328 13 308 0.0 0.0 0.00 0.00 0.00 96 1010.7
20260906094245 13 308 0.0 0.0 0.00 0.00 0.00 96 1010.6
20260906094217 13 308 0.0 0.0 0.00 0.00 0.00 96 1010.7
20260906094058 13 308 0.0 0.0 0.00 0.00 0.00 96 1010.6
20260906094054 13 308 0.0 0.0 0.00 0.00 0.00 96 1010.7
20260906094029 13 308 0.0 0.0 0.00 0.00 0.00 96 1010.8
20260906093844 13 308 0.0 0.0 0.00 0.00 0.00 96 1010.6
20260906093757 13 308 0.0 0.0 0.00 0.00 0.00 96 1010.6
20260906093753 13 308 0.0 0.0 0.00 0.00 0.00 96 1010.7
20260906093608 13 308 0.0 0.0 0.00 0.00 0.00 96 1010.6
20260906093557 13 308 0.0 0.0 0.00 0.00 0.00 96 1010.6
20260906093553 13 308 0.0 0.0 0.00 0.00 0.00 96 1010.6
20260906093529 13 308 0.0 0.0 0.00 0.00 0.00 96 1010.8
20260906093342 13 308 0.0 0.0 0.00 0.00 0.00 96 1010.6
20260906093241 13 308 0.0 0.0 0.00 0.00 0.00 96 1010.5
20260906093159 13 308 0.0 0.0 0.00 0.00 0.00 96 1010.5
20260906093147 13 308 0.0 0.0 0.00 0.00 0.00 96 1010.5
20260906093043 13 308 0.0 0.0 0.00 0.00 0.00 96 1010.7
20260906092941 13 308 0.0 0.0 0.00 0.00 0.00 96 1010.5
20260906092852 13 308 0.0 0.0 0.00 0.00 0.00 96 1010.4
20260906092848 13 308 0.0 0.0 0.00 0.00 0.00 96 1010.4
20260906092639 13 308 0.0 0.0 0.00 0.00 0.00 96 1010.4
20260906092603 13 308 0.0 0.0 0.00 0.00 0.00 96 1010.4
20260906092538 13 308 0.0 0.0 0.00 0.00 0.00 96 1010.3
20260906092529 13 308 0.0 0.0 0.00 0.00 0.00 96 1010.5
20260906092438 13 308 0.0 0.0 0.00 0.00 0.00 96 1010.3
20260906092337 13 308 0.0 0.0 0.00 0.00 0.00 96 1010.3
20260906092237 13 308 0.0 0.0 0.00 0.00 0.00 96 1010.4
20260906092136 13 308 0.0 0.0 0.00 0.00 0.00 96 1010.3
20260906092102 13 308 0.0 0.0 0.00 0.00 0.00 96 1010.3
20260906092036 13 308 0.0 0.0 0.00 0.00 0.00 96 1010.3
20260906092029 13 308 0.0 0.0 0.00 0.00 0.00 96 1010.5
20260906091936 13 308 0.0 0.0 0.00 0.00 0.00 96 1010.3
20260906091836 13 308 0.0 0.0 0.00 0.00 0.00 96 1010.2
20260906091830 13 308 0.0 0.0 0.00 0.00 0.00 96 1010.3
20260906091824 13 308 0.0 0.0 0.00 0.00 0.00 96 1010.2
20260906091819 13 308 0.0 0.0 0.00 0.00 0.00 96 1010.2
20260906091533 13 308 0.0 0.0 0.00 0.00 0.00 96 1010.2
20260906091529 13 308 0.0 0.0 0.00 0.00 0.00 96 1010.4
20260906091432 13 308 0.0 0.0 0.00 0.00 0.00 96 1010.2
20260906091344 13 308 0.0 0.0 0.00 0.00 0.00 96 1010.2
20260906091340 13 308 0.0 0.0 0.00 0.00 0.00 96 1010.2
20260906091131 13 308 0.0 0.0 0.00 0.00 0.00 96 1010.1
20260906091101 13 308 0.0 0.0 0.00 0.00 0.00 96 1010.1
20260906091029 13 308 0.0 0.0 0.00 0.00 0.00 96 1010.3
20260906090928 13 308 0.0 0.0 0.00 0.00 0.00 96 1010.1
20260906090828 13 308 0.0 0.0 0.00 0.00 0.00 96 1010.1
20260906090741 14 308 0.0 0.0 0.00 0.00 0.00 96 1010.1
20260906090737 14 308 0.0 0.0 0.00 0.00 0.00 96 1010.1
20260906090559 14 308 0.0 0.0 0.00 0.00 0.00 96 1010.1
20260906090529 14 308 0.0 0.0 0.00 0.00 0.00 96 1010.4
20260906090527 14 308 0.0 0.0 0.00 0.00 0.00 96 1010.1
20260906090426 14 308 0.0 0.0 0.00 0.00 0.00 96 1010.1
20260906090238 14 308 0.0 0.0 0.00 0.00 0.00 96 1010.0
20260906090233 14 308 0.0 0.0 0.00 0.00 0.00 96 1010.1
20260906090057 14 308 0.0 0.0 0.00 0.00 0.00 96 1010.0
20260906090029 14 308 0.0 0.0 0.00 0.00 0.00 96 1010.3
20260906090024 14 308 0.0 0.0 0.00 0.00 0.00 96 1010.0
20260906085923 14 308 0.0 0.0 0.00 0.00 0.00 96 1010.0
20260906085835 14 308 0.0 0.0 0.00 0.00 0.00 96 1010.1
20260906085830 14 308 0.0 0.0 0.00 0.00 0.00 96 1010.0
20260906085621 14 308 0.0 0.0 0.00 0.00 0.00 96 1010.0
20260906085533 14 308 0.0 0.0 0.00 0.00 0.00 96 1010.0
20260906085529 14 308 0.0 0.0 0.00 0.00 0.00 96 1010.1
20260906085319 14 308 0.0 0.0 0.00 0.00 0.00 96 1010.0
20260906085219 14 308 0.0 0.0 0.00 0.00 0.00 96 1010.0
20260906085117 14 308 0.0 0.0 0.00 0.00 0.00 96 1010.0
20260906085057 14 308 0.0 0.0 0.00 0.00 0.00 96 1010.0
20260906085029 14 308 0.0 0.0 0.00 0.00 0.00 96 1010.4
20260906085017 14 308 0.0 0.0 0.00 0.00 0.00 96 1010.0
20260906084917 14 308 0.0 0.0 0.00 0.00 0.00 96 1010.1
20260906084817 14 308 0.0 0.0 0.00 0.00 0.00 96 1010.1
20260906084717 14 308 0.0 0.0 0.00 0.00 0.00 96 1010.0
20260906084630 14 308 0.0 0.0 0.00 0.00 0.00 96 1010.0
20260906084622 14 308 0.0 0.0 0.00 0.00 0.00 96 1010.1
20260906084528 14 308 0.0 0.0 0.00 0.00 0.00 96 1010.4
20260906084415 14 308 0.0 0.0 0.00 0.00 0.00 96 1010.1
20260906084315 14 308 0.0 0.0 0.00 0.00 0.00 96 1010.1
20260906084214 14 308 0.0 0.0 0.00 0.00 0.00 96 1010.1
20260906084128 14 308 0.0 0.0 0.00 0.00 0.00 96 1010.1
20260906084120 14 308 0.0 0.0 0.00 0.00 0.00 96 1010.1
20260906084029 14 308 0.0 0.0 0.00 0.00 0.00 96 1010.4
20260906083913 14 308 0.0 0.0 0.00 0.00 0.00 96 1010.1
20260906083810 14 308 0.0 0.0 0.00 0.00 0.00 96 1010.1
20260906083711 14 308 0.0 0.0 0.00 0.00 0.00 96 1010.1
20260906083611 14 308 0.0 0.0 0.00 0.00 0.00 96 1010.1
20260906083554 14 308 0.0 0.0 0.00 0.00 0.00 96 1010.1
20260906083529 14 308 0.0 0.0 0.00 0.00 0.00 96 1010.4
20260906083509 14 308 0.0 0.0 0.00 0.00 0.00 96 1010.1
20260906083409 14 308 0.0 0.0 0.00 0.00 0.00 96 1010.1
20260906083310 14 308 0.0 0.0 0.00 0.00 0.00 96 1010.1
20260906083209 14 308 0.0 0.0 0.00 0.00 0.00 96 1010.1
20260906083109 14 308 0.0 0.0 0.00 0.00 0.00 96 1010.1
20260906083057 14 308 0.0 0.0 0.00 0.00 0.00 96 1010.1
20260906083029 14 308 0.0 0.0 0.00 0.00 0.00 96 1010.3
20260906083019 14 308 0.0 0.0 0.00 0.00 0.00 95 1010.0
20260906083015 14 308 0.0 0.0 0.00 0.00 0.00 96 1010.1
20260906082818 14 308 0.0 0.0 0.00 0.00 0.00 95 1010.0
20260906082814 14 308 0.0 0.0 0.00 0.00 0.00 95 1010.0
20260906082604 14 308 0.0 0.0 0.00 0.00 0.00 95 1010.0
20260906082553 14 308 0.0 0.0 0.00 0.00 0.00 95 1009.9
20260906082529 14 308 0.0 0.0 0.00 0.00 0.00 95 1010.2
20260906082504 14 308 0.0 0.0 0.00 0.00 0.00 95 1010.0
20260906082404 14 308 0.0 0.0 0.00 0.00 0.00 95 1009.9
20260906082305 14 308 0.0 0.0 0.00 0.00 0.00 95 1009.9
20260906082203 14 308 0.0 0.0 0.00 0.00 0.00 95 1009.9
20260906082059 14 308 0.0 0.0 0.00 0.00 0.00 95 1010.2
20260906082053 14 308 0.0 0.0 0.00 0.00 0.00 95 1009.9
20260906082033 14 308 0.0 0.0 0.00 0.00 0.00 95 1010.0
20260906082029 14 308 0.0 0.0 0.00 0.00 0.00 95 1010.0
20260906082025 14 308 0.0 0.0 0.00 0.00 0.00 95 1010.0
20260906082019 14 308 0.0 0.0 0.00 0.00 0.00 95 1010.0
20260906081708 14 308 0.0 0.0 0.00 0.00 0.00 95 1009.9
20260906081659 14 308 0.0 0.0 0.00 0.00 0.00 95 1010.0
20260906081529 14 308 0.0 0.0 0.00 0.00 0.00 95 1010.2
20260906081457 14 308 0.0 0.0 0.00 0.00 0.00 95 1010.0
20260906081357 14 308 0.0 0.0 0.00 0.00 0.00 95 1010.0
20260906081256 14 308 0.0 0.0 0.00 0.00 0.00 95 1010.0
20260906081156 14 308 0.0 0.0 0.00 0.00 0.00 95 1010.0
20260906081115 14 308 0.0 0.0 0.00 0.00 0.00 95 1010.0
20260906081103 14 308 0.0 0.0 0.00 0.00 0.00 95 1010.0
20260906081028 14 308 0.0 0.0 0.00 0.00 0.00 95 1010.2
20260906080855 14 308 0.0 0.0 0.00 0.00 0.00 95 1010.0
20260906080755 14 308 0.0 0.0 0.00 0.00 0.00 95 1010.0
20260906080725 14 308 0.0 0.0 0.00 0.00 0.00 95 1010.0
20260906080721 14 308 0.0 0.0 0.00 0.00 0.00 95 1010.0
20260906080715 14 308 0.0 0.0 0.00 0.00 0.00 95 1010.0
20260906080559 14 308 0.0 0.0 0.00 0.00 0.00 95 1010.0
20260906080529 14 308 0.0 0.0 0.00 0.00 0.00 95 1010.2
20260906080351 14 308 0.0 0.0 0.00 0.00 0.00 95 1009.9
20260906080311 14 308 0.0 0.0 0.00 0.00 0.00 95 1010.0
20260906080250 14 308 0.0 0.0 0.00 0.00 0.00 95 1010.0
20260906080204 14 308 0.0 0.0 0.00 0.00 0.00 95 1009.9
20260906080155 14 308 0.0 0.0 0.00 0.00 0.00 95 1010.0
20260906080029 14 308 0.0 0.0 0.00 0.00 0.00 95 1010.1
20260906075949 14 308 0.0 0.0 0.00 0.00 0.00 95 1009.9
20260906075847 14 308 0.0 0.0 0.00 0.00 0.00 95 1009.9
20260906075746 14 308 0.0 0.0 0.00 0.00 0.00 95 1009.9
20260906075645 14 308 0.0 0.0 0.00 0.00 0.00 95 1009.9
20260906075545 14 308 0.0 0.0 0.00 0.00 0.00 95 1009.9
20260906075529 14 308 0.0 0.0 0.00 0.00 0.00 95 1010.2
20260906075444 14 308 0.0 0.0 0.00 0.00 0.00 95 1010.0
20260906075344 14 308 0.0 0.0 0.00 0.00 0.00 95 1009.9
20260906075244 14 308 0.0 0.0 0.00 0.00 0.00 95 1010.0
20260906075143 14 308 0.0 0.0 0.00 0.00 0.00 95 1010.0
20260906075102 14 308 0.0 0.0 0.00 0.00 0.00 95 1009.9
20260906075052 14 308 0.0 0.0 0.00 0.00 0.00 95 1010.0
20260906075029 14 308 0.0 0.0 0.00 0.00 0.00 95 1010.1
20260906074855 14 308 0.0 0.0 0.00 0.00 0.00 95 1010.0
20260906074851 14 308 0.0 0.0 0.00 0.00 0.00 95 1010.0
20260906074641 14 308 0.0 0.0 0.00 0.00 0.00 95 1010.0
20260906074544 14 308 0.0 0.0 0.00 0.00 0.00 95 1010.2
20260906074541 14 308 0.0 0.0 0.00 0.00 0.00 95 1010.0
20260906074439 14 308 0.0 0.0 0.00 0.00 0.00 95 1010.0
20260906074338 14 308 0.0 0.0 0.00 0.00 0.00 95 1010.0
20260906074238 14 308 0.0 0.0 0.00 0.00 0.00 95 1010.0
20260906074138 14 308 0.0 0.0 0.00 0.00 0.00 95 1009.9
20260906074037 14 308 0.0 0.0 0.00 0.00 0.00 95 1010.0
20260906074029 14 308 0.0 0.0 0.00 0.00 0.00 95 1010.2
20260906073936 14 308 0.0 0.0 0.00 0.00 0.00 95 1010.0
20260906073836 14 308 0.0 0.0 0.00 0.00 0.00 95 1010.0
20260906073736 14 308 0.0 0.0 0.00 0.00 0.00 95 1010.0
20260906073636 14 308 0.0 0.0 0.00 0.00 0.00 95 1010.0
20260906073536 14 308 0.0 0.0 0.00 0.00 0.00 95 1010.0
20260906073529 14 308 0.0 0.0 0.00 0.00 0.00 95 1010.2
20260906073436 14 308 0.0 0.0 0.00 0.00 0.00 95 1010.0
20260906073334 14 308 0.0 0.0 0.00 0.00 0.00 95 1009.9
20260906073248 14 308 0.0 0.0 0.00 0.00 0.00 95 1010.0
20260906073244 14 308 0.0 0.0 0.00 0.00 0.00 95 1009.9
20260906073033 14 308 0.0 0.0 0.00 0.00 0.00 95 1010.0
20260906073029 14 308 0.0 0.0 0.00 0.00 0.00 95 1010.2
20260906072932 14 308 0.0 0.0 0.00 0.00 0.00 95 1010.0
20260906072832 14 308 0.0 0.0 0.00 0.00 0.00 95 1009.9
20260906072731 14 308 0.0 0.0 0.00 0.00 0.00 95 1010.0
20260906072629 14 308 0.0 0.0 0.00 0.00 0.00 95 1010.0
20260906072529 14 308 0.0 0.0 0.00 0.00 0.00 95 1010.2
20260906072428 14 308 0.0 0.0 0.00 0.00 0.00 95 1010.0
20260906072328 14 308 0.0 0.0 0.00 0.00 0.00 95 1010.0
20260906072240 14 308 0.0 0.0 0.00 0.00 0.00 95 1010.0
20260906072236 14 308 0.0 0.0 0.00 0.00 0.00 95 1010.0
20260906072029 14 308 0.0 0.0 0.00 0.00 0.00 95 1010.1
20260906072026 14 308 0.0 0.0 0.00 0.00 0.00 95 1009.9
20260906071926 14 308 0.0 0.0 0.00 0.00 0.00 95 1009.9
20260906071826 14 308 0.0 0.0 0.00 0.00 0.00 95 1009.9
20260906071757 14 308 0.0 0.0 0.00 0.00 0.00 95 1009.9
20260906071725 14 308 0.0 0.0 0.00 0.00 0.00 95 1009.9
20260906071644 14 308 0.0 0.0 0.00 0.00 0.00 95 1009.9
20260906071528 15 308 0.0 0.0 0.00 0.00 0.00 95 1010.1
20260906071524 14 308 0.0 0.0 0.00 0.00 0.00 95 1009.9
20260906071424 14 308 0.0 0.0 0.00 0.00 0.00 95 1009.9
20260906071324 14 308 0.0 0.0 0.00 0.00 0.00 95 1009.9
20260906071223 14 308 0.0 0.0 0.00 0.00 0.00 95 1009.9
20260906071123 14 308 0.0 0.0 0.00 0.00 0.00 95 1009.9
20260906071058 15 308 0.0 0.0 0.00 0.00 0.00 95 1010.1
20260906071042 15 308 0.0 0.0 0.00 0.00 0.00 95 1009.9
20260906071031 15 308 0.0 0.0 0.00 0.00 0.00 95 1009.9
20260906070821 15 308 0.0 0.0 0.00 0.00 0.00 95 1009.9
20260906070721 15 308 0.0 0.0 0.00 0.00 0.00 95 1009.8
20260906070647 15 308 0.0 0.0 0.00 0.00 0.00 95 1009.9
20260906070529 15 308 0.0 0.0 0.00 0.00 0.00 95 1010.1
20260906070332 15 308 0.0 0.0 0.00 0.00 0.00 95 1009.9
20260906070328 15 308 0.0 0.0 0.00 0.00 0.00 95 1009.9
20260906070133 15 308 0.0 0.0 0.00 0.00 0.00 95 1009.9
20260906070124 15 308 0.0 0.0 0.00 0.00 0.00 95 1009.9
20260906070029 15 308 0.0 0.0 0.00 0.00 0.00 95 1010.1
20260906065930 15 308 0.0 0.0 0.00 0.00 0.00 95 1009.8
20260906065925 15 308 0.0 0.0 0.00 0.00 0.00 95 1009.9
20260906065716 15 308 0.0 0.0 0.00 0.00 0.00 95 1009.8
20260906065616 15 308 0.0 0.0 0.00 0.00 0.00 95 1009.8
20260906065514 15 308 0.0 0.0 0.00 0.00 0.00 95 1009.9
20260906065414 15 308 0.0 0.0 0.00 0.00 0.00 95 1009.9
20260906065400 15 308 0.0 0.0 0.00 0.00 0.00 95 1010.0
20260906065213 15 308 0.0 0.0 0.00 0.00 0.00 95 1009.9
20260906065138 15 308 0.0 0.0 0.00 0.00 0.00 95 1010.0
20260906065029 15 308 0.0 0.0 0.00 0.00 0.00 95 1010.2
20260906065012 15 308 0.0 0.0 0.00 0.00 0.00 95 1010.0
20260906064924 15 308 0.0 0.0 0.00 0.00 0.00 95 1010.0
20260906064920 15 308 0.0 0.0 0.00 0.00 0.00 95 1010.0
20260906064711 15 308 0.0 0.0 0.00 0.00 0.00 95 1010.0
20260906064610 15 308 0.0 0.0 0.00 0.00 0.00 95 1010.0
20260906064529 15 308 0.0 0.0 0.00 0.00 0.00 95 1010.1
20260906064510 15 308 0.0 0.0 0.00 0.00 0.00 95 1010.0
20260906064409 15 308 0.0 0.0 0.00 0.00 0.00 95 1009.9
20260906064309 15 308 0.0 0.0 0.00 0.00 0.00 95 1010.0
20260906064209 15 308 0.0 0.0 0.00 0.00 0.00 95 1010.0
20260906064108 15 308 0.0 0.0 0.00 0.00 0.00 95 1009.9
20260906064044 15 308 0.0 0.0 0.00 0.00 0.00 95 1010.1
20260906064008 15 308 0.0 0.0 0.00 0.00 0.00 95 1009.9
20260906063908 15 308 0.0 0.0 0.00 0.00 0.00 95 1009.9
20260906063807 15 308 0.0 0.0 0.00 0.00 0.00 95 1009.9
20260906063707 15 308 0.0 0.0 0.00 0.00 0.00 95 1009.9
20260906063607 15 308 0.0 0.0 0.00 0.00 0.00 95 1009.9
20260906063544 15 308 0.0 0.0 0.00 0.00 0.00 95 1010.1
20260906063521 15 308 0.0 0.0 0.00 0.00 0.00 95 1009.9
20260906063516 15 308 0.0 0.0 0.00 0.00 0.00 95 1009.9
20260906063306 15 308 0.0 0.0 0.00 0.00 0.00 95 1009.9
20260906063206 15 308 0.0 0.0 0.00 0.00 0.00 95 1009.9
20260906063105 15 308 0.0 0.0 0.00 0.00 0.00 95 1009.9
20260906063029 15 308 0.0 0.0 0.00 0.00 0.00 95 1010.1
20260906063005 15 308 0.0 0.0 0.00 0.00 0.00 95 1009.9
20260906062905 15 308 0.0 0.0 0.00 0.00 0.00 95 1009.9
20260906062804 15 308 0.0 0.0 0.00 0.00 0.00 95 1009.9
20260906062704 15 308 0.0 0.0 0.00 0.00 0.00 95 1010.0
20260906062603 15 308 0.0 0.0 0.00 0.00 0.00 95 1010.0
20260906062529 15 308 0.0 0.0 0.00 0.00 0.00 95 1010.1
20260906062519 15 308 0.0 0.0 0.00 0.00 0.00 95 1010.0
20260906062503 15 308 0.0 0.0 0.00 0.00 0.00 95 1009.9
20260906062402 15 308 0.0 0.0 0.00 0.00 0.00 95 1010.0
20260906062301 15 308 0.0 0.0 0.00 0.00 0.00 95 1009.9
20260906062202 15 308 0.0 0.0 0.00 0.00 0.00 95 1010.0
20260906062121 15 308 0.0 0.0 0.00 0.00 0.00 95 1009.9
20260906062107 15 308 0.0 0.0 0.00 0.00 0.00 95 1010.0
20260906062029 15 308 0.0 0.0 0.00 0.00 0.00 95 1010.1
20260906061900 15 308 0.0 0.0 0.00 0.00 0.00 95 1010.0
20260906061800 15 308 0.0 0.0 0.00 0.00 0.00 95 1010.0
20260906061713 15 308 0.0 0.0 0.00 0.00 0.00 95 1010.0
20260906061708 15 308 0.0 0.0 0.00 0.00 0.00 95 1010.0
20260906061529 15 308 0.0 0.0 0.00 0.00 0.00 95 1010.2
20260906061519 15 308 0.0 0.0 0.00 0.00 0.00 95 1010.0
20260906061459 15 308 0.0 0.0 0.00 0.00 0.00 95 1010.0
20260906061359 15 308 0.0 0.0 0.00 0.00 0.00 95 1010.0
20260906061257 15 308 0.0 0.0 0.00 0.00 0.00 95 1010.0
20260906061155 15 308 0.0 0.0 0.00 0.00 0.00 95 1010.0
20260906061055 15 308 0.0 0.0 0.00 0.00 0.00 95 1010.0
20260906061044 15 308 0.0 0.0 0.00 0.00 0.00 95 1010.3
20260906061018 15 308 0.0 0.0 0.00 0.00 0.00 95 1010.0
20260906060954 15 308 0.0 0.0 0.00 0.00 0.00 95 1010.1
20260906060854 15 308 0.0 0.0 0.00 0.00 0.00 94 1010.1
20260906060755 15 308 0.0 0.0 0.00 0.00 0.00 94 1010.2
20260906060655 15 308 0.0 0.0 0.00 0.00 0.00 94 1010.1
20260906060555 15 308 0.0 0.0 0.00 0.00 0.00 94 1010.2
20260906060544 15 308 0.0 0.0 0.00 0.00 0.00 94 1010.4
20260906060516 15 308 0.0 0.0 0.00 0.00 0.00 94 1010.2
20260906060454 15 308 0.0 0.0 0.00 0.00 0.00 94 1010.2
20260906060353 15 308 0.0 0.0 0.00 0.00 0.00 94 1010.1
20260906060253 15 308 0.0 0.0 0.00 0.00 0.00 94 1010.2
20260906060238 15 308 0.0 0.0 0.00 0.00 0.00 94 1010.2
20260906060153 15 308 0.0 0.0 0.00 0.00 0.00 94 1010.2
20260906060122 15 308 0.0 0.0 0.00 0.00 0.00 94 1010.2
20260906060029 15 308 0.0 0.0 0.00 0.00 0.00 94 1010.4
20260906055952 15 308 0.0 0.0 0.00 0.00 0.00 94 1010.2
20260906055850 15 308 0.0 0.0 0.00 0.00 0.00 94 1010.2
20260906055750 15 308 0.0 0.0 0.00 0.00 0.00 95 1010.2
20260906055716 15 308 0.0 0.0 0.00 0.00 0.00 95 1010.2
20260906055555 15 308 0.0 0.0 0.00 0.00 0.00 95 1010.2
20260906055529 15 308 0.0 0.0 0.00 0.00 0.00 95 1010.4
20260906055348 15 308 0.0 0.0 0.00 0.00 0.00 95 1010.2
20260906055248 15 308 0.0 0.0 0.00 0.00 0.00 95 1010.2
20260906055147 15 308 0.0 0.0 0.00 0.00 0.00 95 1010.2
20260906055047 15 308 0.0 0.0 0.00 0.00 0.00 95 1010.2
20260906055028 15 308 0.0 0.0 0.00 0.00 0.00 95 1010.4
20260906055012 15 308 0.0 0.0 0.00 0.00 0.00 95 1010.2
20260906054946 15 308 0.0 0.0 0.00 0.00 0.00 95 1010.2
20260906054846 15 308 0.0 0.0 0.00 0.00 0.00 95 1010.2
20260906054746 15 308 0.0 0.0 0.00 0.00 0.00 95 1010.2
20260906054735 15 308 0.0 0.0 0.00 0.00 0.00 95 1010.2
20260906054645 15 308 0.0 0.0 0.00 0.00 0.00 95 1010.2
20260906054620 15 308 0.0 0.0 0.00 0.00 0.00 95 1010.2
20260906054529 15 308 0.0 0.0 0.00 0.00 0.00 95 1010.5
20260906054446 15 308 0.0 0.0 0.00 0.00 0.00 95 1010.3
20260906054346 15 308 0.0 0.0 0.00 0.00 0.00 95 1010.3
20260906054245 15 308 0.0 0.0 0.00 0.00 0.00 95 1010.2
20260906054144 15 308 0.0 0.0 0.00 0.00 0.00 95 1010.3
20260906054103 15 308 0.0 0.0 0.00 0.00 0.00 95 1010.3
20260906054058 15 308 0.0 0.0 0.00 0.00 0.00 94 1010.3
20260906054050 15 308 0.0 0.0 0.00 0.00 0.00 95 1010.3
20260906054029 15 308 0.0 0.0 0.00 0.00 0.00 95 1010.5
20260906053843 15 308 0.0 0.0 0.00 0.00 0.00 95 1010.3
20260906053743 15 308 0.0 0.0 0.00 0.00 0.00 95 1010.3
20260906053642 15 308 0.0 0.0 0.00 0.00 0.00 94 1010.4
20260906053629 15 308 0.0 0.0 0.00 0.00 0.00 94 1010.6
20260906053542 15 308 0.0 0.0 0.00 0.00 0.00 94 1010.3
20260906053510 15 308 0.0 0.0 0.00 0.00 0.00 94 1010.3
20260906053442 15 308 0.0 0.0 0.00 0.00 0.00 94 1010.4
20260906053341 15 308 0.0 0.0 0.00 0.00 0.00 94 1010.4
20260906053240 15 308 0.0 0.0 0.00 0.00 0.00 94 1010.5
20260906053140 15 308 0.0 0.0 0.00 0.00 0.00 94 1010.5
20260906053029 15 308 0.0 0.0 0.00 0.00 0.00 94 1010.7
20260906053009 15 308 0.0 0.0 0.00 0.00 0.00 94 1010.5
20260906052958 15 308 0.0 0.0 0.00 0.00 0.00 94 1010.5
20260906052845 15 308 0.0 0.0 0.00 0.00 0.00 94 1010.4
20260906052635 15 308 0.0 0.0 0.00 0.00 0.00 94 1010.5
20260906052529 15 308 0.0 0.0 0.00 0.00 0.00 94 1010.7
20260906052507 15 308 0.0 0.0 0.00 0.00 0.00 94 1010.4
20260906052435 15 308 0.0 0.0 0.00 0.00 0.00 94 1010.5
20260906052335 15 308 0.0 0.0 0.00 0.00 0.00 94 1010.4
20260906052252 15 308 0.0 0.0 0.00 0.00 0.00 94 1010.4
20260906052248 15 308 0.0 0.0 0.00 0.00 0.00 94 1010.4
20260906052242 15 308 0.0 0.0 0.00 0.00 0.00 94 1010.4
20260906052114 15 308 0.0 0.0 0.00 0.00 0.00 94 1010.4
20260906052029 15 308 0.0 0.0 0.00 0.00 0.00 94 1010.5
20260906051934 15 308 0.0 0.0 0.00 0.00 0.00 94 1010.3
20260906051858 15 308 0.0 0.0 0.00 0.00 0.00 94 1010.4
20260906051853 15 308 0.0 0.0 0.00 0.00 0.00 94 1010.4
20260906051740 15 308 0.0 0.0 0.00 0.00 0.00 94 1010.4
20260906051613 15 308 0.0 0.0 0.00 0.00 0.00 94 1010.4
20260906051529 15 308 0.0 0.0 0.00 0.00 0.00 94 1010.6
20260906051430 15 308 0.0 0.0 0.00 0.00 0.00 94 1010.4
20260906051329 15 308 0.0 0.0 0.00 0.00 0.00 94 1010.4
20260906051229 15 308 0.0 0.0 0.00 0.00 0.00 94 1010.4
20260906051129 15 308 0.0 0.0 0.00 0.00 0.00 94 1010.4
20260906051029 15 308 0.0 0.0 0.00 0.00 0.00 94 1010.6
20260906051005 15 308 0.0 0.0 0.00 0.00 0.00 94 1010.4
20260906050928 15 308 0.0 0.0 0.00 0.00 0.00 94 1010.4
20260906050827 15 308 0.0 0.0 0.00 0.00 0.00 94 1010.4
20260906050741 15 308 0.0 0.0 0.00 0.00 0.00 94 1010.4
20260906050736 15 308 0.0 0.0 0.00 0.00 0.00 94 1010.4
20260906050529 15 308 0.0 0.0 0.00 0.00 0.00 94 1010.6
20260906050503 15 308 0.0 0.0 0.00 0.00 0.00 94 1010.4
20260906050439 15 308 0.0 0.0 0.00 0.00 0.00 94 1010.4
20260906050434 15 308 0.0 0.0 0.00 0.00 0.00 94 1010.4
20260906050225 15 308 0.0 0.0 0.00 0.00 0.00 94 1010.4
20260906050124 15 308 0.0 0.0 0.00 0.00 0.00 94 1010.4
20260906050044 15 308 0.0 0.0 0.00 0.00 0.00 94 1010.6
20260906050031 15 308 0.0 0.0 0.00 0.00 0.00 94 1010.4
20260906045823 15 308 0.0 0.0 0.00 0.00 0.00 94 1010.4
20260906045740 15 308 0.0 0.0 0.00 0.00 0.00 94 1010.3
20260906045731 15 308 0.0 0.0 0.00 0.00 0.00 94 1010.3
20260906045727 15 308 0.0 0.0 0.00 0.00 0.00 94 1010.4
20260906045718 15 308 0.0 0.0 0.00 0.00 0.00 94 1010.3
20260906045529 15 308 0.0 0.0 0.00 0.00 0.00 94 1010.5
20260906045422 15 308 0.0 0.0 0.00 0.00 0.00 94 1010.3
20260906045334 15 308 0.0 0.0 0.00 0.00 0.00 94 1010.3
20260906045330 15 308 0.0 0.0 0.00 0.00 0.00 94 1010.3
20260906045121 15 308 0.0 0.0 0.00 0.00 0.00 94 1010.4
20260906045029 15 308 0.0 0.0 0.00 0.00 0.00 94 1010.6
20260906045020 15 308 0.0 0.0 0.00 0.00 0.00 94 1010.4
20260906045002 15 308 0.0 0.0 0.00 0.00 0.00 94 1010.4
20260906044920 15 308 0.0 0.0 0.00 0.00 0.00 94 1010.4
20260906044819 15 308 0.0 0.0 0.00 0.00 0.00 94 1010.3
20260906044719 15 308 0.0 0.0 0.00 0.00 0.00 94 1010.3
20260906044619 15 308 0.0 0.0 0.00 0.00 0.00 94 1010.3
20260906044529 15 308 0.0 0.0 0.00 0.00 0.00 94 1010.5
20260906044518 15 308 0.0 0.0 0.00 0.00 0.00 94 1010.3
20260906044501 15 308 0.0 0.0 0.00 0.00 0.00 94 1010.3
20260906044419 15 308 0.0 0.0 0.00 0.00 0.00 94 1010.3
20260906044318 15 308 0.0 0.0 0.00 0.00 0.00 94 1010.4
20260906044230 15 308 0.0 0.0 0.00 0.00 0.00 94 1010.4
20260906044226 15 308 0.0 0.0 0.00 0.00 0.00 94 1010.4
20260906044029 15 308 0.0 0.0 0.00 0.00 0.00 94 1010.6
20260906044016 15 308 0.0 0.0 0.00 0.00 0.00 94 1010.4
20260906044000 15 308 0.0 0.0 0.00 0.00 0.00 94 1010.4
20260906043916 15 308 0.0 0.0 0.00 0.00 0.00 94 1010.4
20260906043816 15 308 0.0 0.0 0.00 0.00 0.00 94 1010.4
20260906043715 15 308 0.0 0.0 0.00 0.00 0.00 93 1010.4
20260906043615 15 308 0.0 0.0 0.00 0.00 0.00 93 1010.4
20260906043529 16 308 0.0 0.0 0.00 0.00 0.00 93 1010.6
20260906043514 15 308 0.0 0.0 0.00 0.00 0.00 93 1010.4
20260906043500 15 308 0.0 0.0 0.00 0.00 0.00 93 1010.4
20260906043415 15 308 0.0 0.0 0.00 0.00 0.00 94 1010.4
20260906043315 15 308 0.0 0.0 0.00 0.00 0.00 94 1010.4
20260906043234 16 308 0.0 0.0 0.00 0.00 0.00 94 1010.4
20260906043229 16 308 0.0 0.0 0.00 0.00 0.00 94 1010.3
20260906043225 16 308 0.0 0.0 0.00 0.00 0.00 94 1010.4
20260906043216 16 308 0.0 0.0 0.00 0.00 0.00 94 1010.4
20260906043029 16 308 0.0 0.0 0.00 0.00 0.00 94 1010.5
20260906042913 16 308 0.0 0.0 0.00 0.00 0.00 94 1010.3
20260906042813 16 308 0.0 0.0 0.00 0.00 0.00 94 1010.4
20260906042712 16 308 0.0 0.0 0.00 0.00 0.00 94 1010.3
20260906042612 16 308 0.0 0.0 0.00 0.00 0.00 94 1010.3
20260906042529 16 308 0.0 0.0 0.00 0.00 0.00 94 1010.5
20260906042511 16 308 0.0 0.0 0.00 0.00 0.00 94 1010.3
20260906042459 16 308 0.0 0.0 0.00 0.00 0.00 94 1010.3
20260906042410 16 308 0.0 0.0 0.00 0.00 0.00 93 1010.3
20260906042310 16 308 0.0 0.0 0.00 0.00 0.00 93 1010.3
20260906042208 16 308 0.0 0.0 0.00 0.00 0.00 93 1010.3
20260906042109 16 308 0.0 0.0 0.00 0.00 0.00 93 1010.3
20260906042029 16 308 0.0 0.0 0.00 0.00 0.00 93 1010.5
20260906042008 16 308 0.0 0.0 0.00 0.00 0.00 93 1010.3
20260906041958 16 308 0.0 0.0 0.00 0.00 0.00 93 1010.3
20260906041907 16 308 0.0 0.0 0.00 0.00 0.00 93 1010.3
20260906041807 16 308 0.0 0.0 0.00 0.00 0.00 93 1010.3
20260906041717 16 308 0.0 0.0 0.00 0.00 0.00 93 1010.3
20260906041707 16 308 0.0 0.0 0.00 0.00 0.00 93 1010.3
20260906041613 16 308 0.0 0.0 0.00 0.00 0.00 93 1010.3
20260906041604 16 308 0.0 0.0 0.00 0.00 0.00 93 1010.3
20260906041544 16 308 0.0 0.0 0.00 0.00 0.00 93 1010.5
20260906041406 16 308 0.0 0.0 0.00 0.00 0.00 93 1010.3
20260906041327 16 308 0.0 0.0 0.00 0.00 0.00 93 1010.3
20260906041214 16 308 0.0 0.0 0.00 0.00 0.00 93 1010.3
20260906041029 16 308 0.0 0.0 0.00 0.00 0.00 93 1010.5
20260906041003 16 308 0.0 0.0 0.00 0.00 0.00 93 1010.3
20260906040956 16 308 0.0 0.0 0.00 0.00 0.00 93 1010.3
20260906040904 16 308 0.0 0.0 0.00 0.00 0.00 93 1010.3
20260906040802 16 308 0.0 0.0 0.00 0.00 0.00 93 1010.3
20260906040701 16 308 0.0 0.0 0.00 0.00 0.00 93 1010.3
20260906040601 16 308 0.0 0.0 0.00 0.00 0.00 93 1010.2
20260906040529 16 308 0.0 0.0 0.00 0.00 0.00 93 1010.4
20260906040457 16 308 0.0 0.0 0.00 0.00 0.00 93 1010.2
20260906040413 16 308 0.0 0.0 0.00 0.00 0.00 93 1010.2
20260906040408 16 308 0.0 0.0 0.00 0.00 0.00 93 1010.2
20260906040159 16 308 0.0 0.0 0.00 0.00 0.00 93 1010.2
20260906040059 16 308 0.0 0.0 0.00 0.00 0.00 93 1010.2
20260906040029 16 308 0.0 0.0 0.00 0.00 0.00 93 1010.4
20260906035955 16 308 0.0 0.0 0.00 0.00 0.00 93 1010.2
20260906035857 16 308 0.0 0.0 0.00 0.00 0.00 93 1010.2
20260906035757 16 308 0.0 0.0 0.00 0.00 0.00 93 1010.2
20260906035656 16 308 0.0 0.0 0.00 0.00 0.00 93 1010.2
20260906035556 16 308 0.0 0.0 0.00 0.00 0.00 93 1010.2
20260906035529 16 308 0.0 0.0 0.00 0.00 0.00 93 1010.4
20260906035457 16 308 0.0 0.0 0.00 0.00 0.00 93 1010.2
20260906035355 16 308 0.0 0.0 0.00 0.00 0.00 93 1010.2
20260906035255 16 308 0.0 0.0 0.00 0.00 0.00 93 1010.2
20260906035154 16 308 0.0 0.0 0.00 0.00 0.00 93 1010.1
20260906035054 16 308 0.0 0.0 0.00 0.00 0.00 93 1010.1
20260906035029 16 308 0.0 0.0 0.00 0.00 0.00 93 1010.3
20260906034954 16 308 0.0 0.0 0.00 0.00 0.00 93 1010.1
20260906034853 16 308 0.0 0.0 0.00 0.00 0.00 93 1010.1
20260906034806 16 308 0.0 0.0 0.00 0.00 0.00 93 1010.1
20260906034802 16 308 0.0 0.0 0.00 0.00 0.00 93 1010.1
20260906034552 16 308 0.0 0.0 0.00 0.00 0.00 93 1010.0
20260906034529 16 308 0.0 0.0 0.00 0.00 0.00 93 1010.2
20260906034452 16 308 0.0 0.0 0.00 0.00 0.00 93 1010.0
20260906034413 16 308 0.0 0.0 0.00 0.00 0.00 93 1010.0
20260906034300 16 308 0.0 0.0 0.00 0.00 0.00 93 1010.0
20260906034125 16 308 0.0 0.0 0.00 0.00 0.00 92 1010.0
20260906034116 16 308 0.0 0.0 0.00 0.00 0.00 92 1010.0
20260906034029 16 308 0.0 0.0 0.00 0.00 0.00 92 1010.2
20260906033857 16 308 0.0 0.0 0.00 0.00 0.00 92 1010.0
20260906033648 16 308 0.0 0.0 0.00 0.00 0.00 92 1010.1
20260906033547 16 308 0.0 0.0 0.00 0.00 0.00 92 1010.0
20260906033544 16 308 0.0 0.0 0.00 0.00 0.00 92 1010.2
20260906033447 16 308 0.0 0.0 0.00 0.00 0.00 92 1010.0
20260906033348 16 308 0.0 0.0 0.00 0.00 0.00 92 1010.1
20260906033309 16 308 0.0 0.0 0.00 0.00 0.00 92 1010.0
20260906033156 16 308 0.0 0.0 0.00 0.00 0.00 93 1010.0
20260906033029 16 308 0.0 0.0 0.00 0.00 0.00 93 1010.2
20260906032947 16 308 0.0 0.0 0.00 0.00 0.00 93 1010.0
20260906032846 16 308 0.0 0.0 0.00 0.00 0.00 92 1010.0
20260906032746 16 308 0.0 0.0 0.00 0.00 0.00 92 1010.1
20260906032647 16 308 0.0 0.0 0.00 0.00 0.00 92 1010.1
20260906032547 16 308 0.0 0.0 0.00 0.00 0.00 92 1010.1
20260906032544 16 308 0.0 0.0 0.00 0.00 0.00 92 1010.3
20260906032445 16 308 0.0 0.0 0.00 0.00 0.00 92 1010.1
20260906032345 16 308 0.0 0.0 0.00 0.00 0.00 92 1010.1
20260906032244 16 308 0.0 0.0 0.00 0.00 0.00 92 1010.0
20260906032144 16 308 0.0 0.0 0.00 0.00 0.00 92 1010.0
20260906032045 16 308 0.0 0.0 0.00 0.00 0.00 92 1010.0
20260906032029 16 308 0.0 0.0 0.00 0.00 0.00 92 1010.2
20260906032017 16 308 0.0 0.0 0.00 0.00 0.00 92 1010.0
20260906032013 16 308 0.0 0.0 0.00 0.00 0.00 92 1009.9
20260906032002 16 308 0.0 0.0 0.00 0.00 0.00 92 1010.0
20260906031643 16 308 0.0 0.0 0.00 0.00 0.00 92 1010.0
20260906031544 16 308 0.0 0.0 0.00 0.00 0.00 92 1010.2
20260906031442 16 308 0.0 0.0 0.00 0.00 0.00 92 1010.0
20260906031409 16 308 0.0 0.0 0.00 0.00 0.00 92 1010.0
20260906031405 16 308 0.0 0.0 0.00 0.00 0.00 92 1010.0
20260906031359 16 308 0.0 0.0 0.00 0.00 0.00 92 1010.0
20260906031055 16 308 0.0 0.0 0.00 0.00 0.00 92 1010.0
20260906031045 16 308 0.0 0.0 0.00 0.00 0.00 92 1010.0
20260906031029 16 308 0.0 0.0 0.00 0.00 0.00 92 1010.2
20260906030840 16 308 0.0 0.0 0.00 0.00 0.00 92 1010.0
20260906030739 16 308 0.0 0.0 0.00 0.00 0.00 92 1010.0
20260906030638 16 308 0.0 0.0 0.00 0.00 0.00 92 1010.0
20260906030553 16 308 0.0 0.0 0.00 0.00 0.00 92 1010.0
20260906030544 16 308 0.0 0.0 0.00 0.00 0.00 92 1010.0
20260906030529 16 308 0.0 0.0 0.00 0.00 0.00 92 1010.2
20260906030338 16 308 0.0 0.0 0.00 0.00 0.00 92 1010.0
20260906030236 16 308 0.0 0.0 0.00 0.00 0.00 92 1009.9
20260906030136 16 308 0.0 0.0 0.00 0.00 0.00 92 1009.9
20260906030044 16 308 0.0 0.0 0.00 0.00 0.00 92 1010.1
20260906030036 16 308 0.0 0.0 0.00 0.00 0.00 92 1009.9
20260906025954 16 308 0.0 0.0 0.00 0.00 0.00 92 1009.9
20260906025943 16 308 0.0 0.0 0.00 0.00 0.00 92 1009.9
20260906025731 16 308 0.0 0.0 0.00 0.00 0.00 91 1009.9
20260906025631 16 308 0.0 0.0 0.00 0.00 0.00 91 1009.9
20260906025545 16 308 0.0 0.0 0.00 0.00 0.00 91 1009.9
20260906025537 16 308 0.0 0.0 0.00 0.00 0.00 91 1009.8
20260906025529 17 308 0.0 0.0 0.00 0.00 0.00 91 1010.0
20260906025330 17 308 0.0 0.0 0.00 0.00 0.00 91 1009.8
20260906025316 17 308 0.0 0.0 0.00 0.00 0.00 91 1009.8
20260906025313 17 308 0.0 0.0 0.00 0.00 0.00 91 1009.8
20260906025307 17 308 0.0 0.0 0.00 0.00 0.00 91 1009.8
20260906025302 17 308 0.0 0.0 0.00 0.00 0.00 91 1009.8
20260906025035 17 308 0.0 0.0 0.00 0.00 0.00 91 1009.8
20260906025029 17 308 0.0 0.0 0.00 0.00 0.00 91 1010.0
20260906024829 17 308 0.0 0.0 0.00 0.00 0.00 91 1009.8
20260906024729 17 308 0.0 0.0 0.00 0.00 0.00 91 1009.8
20260906024642 17 308 0.0 0.0 0.00 0.00 0.00 91 1009.8
20260906024637 17 308 0.0 0.0 0.00 0.00 0.00 91 1009.8
20260906024529 17 308 0.0 0.0 0.00 0.00 0.00 91 1010.1
20260906024426 17 308 0.0 0.0 0.00 0.00 0.00 91 1009.9
20260906024326 17 308 0.0 0.0 0.00 0.00 0.00 91 1009.9
20260906024226 17 308 0.0 0.0 0.00 0.00 0.00 91 1009.9
20260906024125 17 308 0.0 0.0 0.00 0.00 0.00 91 1009.9
20260906024029 17 308 0.0 0.0 0.00 0.00 0.00 91 1010.1
20260906024025 17 308 0.0 0.0 0.00 0.00 0.00 91 1009.9
20260906023924 17 308 0.0 0.0 0.00 0.00 0.00 91 1009.9
20260906023824 17 308 0.0 0.0 0.00 0.00 0.00 91 1009.8
20260906023724 17 308 0.0 0.0 0.00 0.00 0.00 91 1009.9
20260906023624 17 308 0.0 0.0 0.00 0.00 0.00 91 1009.8
20260906023530 17 308 0.0 0.0 0.00 0.00 0.00 91 1009.9
20260906023523 17 308 0.0 0.0 0.00 0.00 0.00 91 1009.8
20260906023423 17 308 0.0 0.0 0.00 0.00 0.00 91 1009.7
20260906023323 17 308 0.0 0.0 0.00 0.00 0.00 91 1009.8
20260906023222 17 308 0.0 0.0 0.00 0.00 0.00 91 1009.8
20260906023122 17 308 0.0 0.0 0.00 0.00 0.00 91 1009.7
20260906023029 17 308 0.0 0.0 0.00 0.00 0.00 90 1010.0
20260906023019 17 308 0.0 0.0 0.00 0.00 0.00 90 1009.8
20260906022919 17 308 0.0 0.0 0.00 0.00 0.00 90 1009.8
20260906022819 17 308 0.0 0.0 0.00 0.00 0.00 90 1009.8
20260906022718 17 308 0.0 0.0 0.00 0.00 0.00 90 1009.8
20260906022644 17 308 0.0 0.0 0.00 0.00 0.00 90 1009.8
20260906022531 17 308 0.0 0.0 0.00 0.00 0.00 90 1009.8
20260906022529 17 308 0.0 0.0 0.00 0.00 0.00 90 1010.0
20260906022523 17 308 0.0 0.0 0.00 0.00 0.00 90 1009.8
20260906022316 17 308 0.0 0.0 0.00 0.00 0.00 90 1009.8
20260906022216 17 308 0.0 0.0 0.00 0.00 0.00 90 1009.8
20260906022115 17 308 0.0 0.0 0.00 0.00 0.00 90 1009.8
20260906022029 17 308 0.0 0.0 0.00 0.00 0.00 90 1009.9
20260906022015 17 308 0.0 0.0 0.00 0.00 0.00 90 1009.8
20260906021914 17 308 0.0 0.0 0.00 0.00 0.00 90 1009.7
20260906021829 17 308 0.0 0.0 0.00 0.00 0.00 90 1009.7
20260906021823 17 308 0.0 0.0 0.00 0.00 0.00 90 1009.7
20260906021613 17 308 0.0 0.0 0.00 0.00 0.00 90 1009.7
20260906021532 17 308 0.0 0.0 0.00 0.00 0.00 90 1009.8
20260906021529 17 308 0.0 0.0 0.00 0.00 0.00 90 1009.9
20260906021526 17 308 0.0 0.0 0.00 0.00 0.00 90 1009.7
20260906021519 17 308 0.0 0.0 0.00 0.00 0.00 90 1009.7
20260906021313 17 308 0.0 0.0 0.00 0.00 0.00 90 1009.8
20260906021211 17 308 0.0 0.0 0.00 0.00 0.00 90 1009.9
20260906021111 17 308 0.0 0.0 0.00 0.00 0.00 90 1009.8
20260906021029 17 308 0.0 0.0 0.00 0.00 0.00 90 1009.9
20260906021010 17 308 0.0 0.0 0.00 0.00 0.00 90 1009.8
20260906020909 17 308 0.0 0.0 0.00 0.00 0.00 90 1009.8
20260906020809 17 308 0.0 0.0 0.00 0.00 0.00 89 1009.8
20260906020709 17 308 0.0 0.0 0.00 0.00 0.00 89 1009.9
20260906020659 17 308 0.0 0.0 0.00 0.00 0.00 89 1009.9
20260906020609 17 308 0.0 0.0 0.00 0.00 0.00 89 1009.8
20260906020545 17 308 0.0 0.0 0.00 0.00 0.00 89 1009.9
20260906020529 17 308 0.0 0.0 0.00 0.00 0.00 89 1010.0
20260906020408 17 308 0.0 0.0 0.00 0.00 0.00 89 1009.9
20260906020308 17 308 0.0 0.0 0.00 0.00 0.00 89 1009.9
20260906020208 17 308 0.0 0.0 0.00 0.00 0.00 89 1009.9
20260906020107 17 308 0.0 0.0 0.00 0.00 0.00 89 1009.9
20260906020029 17 308 0.0 0.0 0.00 0.00 0.00 89 1010.0
20260906020020 17 308 0.0 0.0 0.00 0.00 0.00 89 1009.9
20260906020012 17 308 0.0 0.0 0.00 0.00 0.00 89 1009.9
20260906015805 17 308 0.0 0.0 0.00 0.00 0.00 89 1009.8
20260906015702 17 308 0.0 0.0 0.00 0.00 0.00 89 1009.8
20260906015602 17 308 0.0 0.0 0.00 0.00 0.00 89 1009.8
20260906015544 17 308 0.0 0.0 0.00 0.00 0.00 89 1009.9
20260906015502 17 308 0.0 0.0 0.00 0.00 0.00 89 1009.8
20260906015434 17 308 0.0 0.0 0.00 0.00 0.00 88 1009.8
20260906015401 17 308 0.0 0.0 0.00 0.00 0.00 88 1009.8
20260906015301 17 308 0.0 0.0 0.00 0.00 0.00 88 1009.9
20260906015201 17 308 0.0 0.0 0.00 0.00 0.00 88 1009.9
20260906015130 17 308 0.0 0.0 0.00 0.00 0.00 88 1009.9
20260906015126 18 308 0.0 0.0 0.00 0.00 0.00 88 1009.8
20260906015121 17 308 0.0 0.0 0.00 0.00 0.00 88 1009.9
20260906015029 17 308 0.0 0.0 0.00 0.00 0.00 88 1010.0
20260906015004 17 308 0.0 0.0 0.00 0.00 0.00 88 1009.9
20260906014757 18 308 0.0 0.0 0.00 0.00 0.00 88 1009.9
20260906014655 18 308 0.0 0.0 0.00 0.00 0.00 88 1009.9
20260906014610 18 308 0.0 0.0 0.00 0.00 0.00 88 1009.9
20260906014604 18 308 0.0 0.0 0.00 0.00 0.00 88 1009.8
20260906014529 18 308 0.0 0.0 0.00 0.00 0.00 88 1010.0
20260906014432 18 308 0.0 0.0 0.00 0.00 0.00 88 1009.9
20260906014355 18 308 0.0 0.0 0.00 0.00 0.00 88 1009.9
20260906014254 18 308 0.0 0.0 0.00 0.00 0.00 88 1009.9
20260906014153 18 308 0.0 0.0 0.00 0.00 0.00 87 1009.9
20260906014140 18 308 0.0 0.0 0.00 0.00 0.00 87 1009.8
20260906014136 18 308 0.0 0.0 0.00 0.00 0.00 87 1009.8
20260906014130 18 308 0.0 0.0 0.00 0.00 0.00 87 1009.8
20260906014125 18 308 0.0 0.0 0.00 0.00 0.00 87 1009.9
20260906014030 18 308 0.0 0.0 0.00 0.00 0.00 87 1009.9
20260906014008 18 308 0.0 0.0 0.00 0.00 0.00 87 1009.8
20260906013651 18 308 0.0 0.0 0.00 0.00 0.00 87 1009.8
20260906013552 18 308 0.0 0.0 0.00 0.00 0.00 87 1009.8
20260906013529 18 308 0.0 0.0 0.00 0.00 0.00 87 1009.9
20260906013430 18 308 0.0 0.0 0.00 0.00 0.00 87 1009.8
20260906013405 18 308 0.0 0.0 0.00 0.00 0.00 87 1009.7
20260906013400 18 308 0.0 0.0 0.00 0.00 0.00 87 1009.7
20260906013205 18 308 0.0 0.0 0.00 0.00 0.00 87 1009.7
20260906013159 18 308 0.0 0.0 0.00 0.00 0.00 87 1009.7
20260906013029 18 308 0.0 0.0 0.00 0.00 0.00 87 1009.8
20260906012928 18 308 0.0 0.0 0.00 0.00 0.00 87 1009.7
20260906012849 18 308 0.0 0.0 0.00 0.00 0.00 87 1009.7
20260906012749 18 308 0.0 0.0 0.00 0.00 0.00 87 1009.6
20260906012703 18 308 0.0 0.0 0.00 0.00 0.00 87 1009.6
20260906012657 18 308 0.0 0.0 0.00 0.00 0.00 87 1009.6
20260906012529 18 308 0.0 0.0 0.00 0.00 0.00 87 1009.7
20260906012518 18 308 0.0 0.0 0.00 0.00 0.00 86 1009.6
20260906012514 18 308 0.0 0.0 0.00 0.00 0.00 86 1009.6
20260906012501 18 308 0.0 0.0 0.00 0.00 0.00 86 1009.6
20260906012144 18 308 0.0 0.0 0.00 0.00 0.00 86 1009.5
20260906012043 18 308 0.0 0.0 0.00 0.00 0.00 85 1009.5
20260906012029 18 308 0.0 0.0 0.00 0.00 0.00 85 1009.7
20260906011926 18 308 0.0 0.0 0.00 0.00 0.00 85 1009.6
20260906011857 18 308 0.0 0.0 0.00 0.00 0.00 85 1009.5
20260906011851 18 308 0.0 0.0 0.00 0.00 0.00 85 1009.6
20260906011642 18 308 0.0 0.0 0.00 0.00 0.00 85 1009.5
20260906011541 18 308 0.0 0.0 0.00 0.00 0.00 85 1009.5
20260906011529 18 308 0.0 0.0 0.00 0.00 0.00 85 1009.6
20260906011425 18 308 0.0 0.0 0.00 0.00 0.00 85 1009.5
20260906011341 18 308 0.0 0.0 0.00 0.00 0.00 84 1009.5
20260906011239 18 308 0.0 0.0 0.00 0.00 0.00 84 1009.4
20260906011139 18 308 0.0 0.0 0.00 0.00 0.00 84 1009.5
20260906011039 18 308 0.0 0.0 0.00 0.00 0.00 84 1009.5
20260906011029 18 308 0.0 0.0 0.00 0.00 0.00 84 1009.5
20260906011010 18 308 0.0 0.0 0.00 0.00 0.00 84 1009.4
20260906011006 18 308 0.0 0.0 0.00 0.00 0.00 84 1009.5
20260906010954 18 308 0.0 0.0 0.00 0.00 0.00 84 1009.4
20260906010651 18 308 0.0 0.0 0.00 0.00 0.00 84 1009.4
20260906010645 18 308 0.0 0.0 0.00 0.00 0.00 84 1009.5
20260906010529 18 308 0.0 0.0 0.00 0.00 0.00 84 1009.5
20260906010422 18 308 0.0 0.0 0.00 0.00 0.00 84 1009.4
20260906010347 18 308 0.0 0.0 0.00 0.00 0.00 83 1009.3
20260906010342 18 308 0.0 0.0 0.00 0.00 0.00 83 1009.4
20260906010132 19 308 0.0 0.0 0.00 0.00 0.00 83 1009.3
20260906010031 19 308 0.0 0.0 0.00 0.00 0.00 83 1009.3
20260906010029 19 308 0.0 0.0 0.00 0.00 0.00 83 1009.4
20260906005920 19 308 0.0 0.0 0.00 0.00 0.00 83 1009.3
20260906005829 19 308 0.0 0.0 0.00 0.00 0.00 82 1009.2
20260906005729 19 308 0.0 0.0 0.00 0.00 0.00 82 1009.3
20260906005629 19 308 0.0 0.0 0.00 0.00 0.00 82 1009.3
20260906005529 19 308 0.0 0.0 0.00 0.00 0.00 82 1009.3
20260906005527 19 308 0.0 0.0 0.00 0.00 0.00 82 1009.3
20260906005420 19 308 0.0 0.0 0.00 0.00 0.00 82 1009.2
20260906005326 19 308 0.0 0.0 0.00 0.00 0.00 82 1009.2
20260906005226 19 308 0.0 0.0 0.00 0.00 0.00 82 1009.2
20260906005140 19 308 0.0 0.0 0.00 0.00 0.00 81 1009.1
20260906005134 19 308 0.0 0.0 0.00 0.00 0.00 81 1009.1
20260906005044 19 308 0.0 0.0 0.00 0.00 0.00 81 1009.2
20260906004921 19 308 0.0 0.0 0.00 0.00 0.00 81 1009.1
20260906004901 19 308 0.0 0.0 0.00 0.00 0.00 81 1009.0
20260906004856 19 308 0.0 0.0 0.00 0.00 0.00 81 1009.1
20260906004633 19 308 0.0 0.0 0.00 0.00 0.00 81 1009.1
20260906004530 20 308 0.0 0.0 0.00 0.00 0.00 81 1009.2
20260906004419 19 308 0.0 0.0 0.00 0.00 0.00 81 1009.1
20260906004323 20 308 0.0 0.0 0.00 0.00 0.00 80 1009.1
20260906004223 20 308 0.0 0.0 0.00 0.00 0.00 80 1009.1
20260906004136 20 308 0.0 0.0 0.00 0.00 0.00 80 1009.1
20260906004130 20 308 0.0 0.0 0.00 0.00 0.00 80 1009.1
20260906004029 20 308 0.0 0.0 0.00 0.00 0.00 80 1009.2
20260906003938 20 308 0.0 0.0 0.00 0.00 0.00 80 1009.1
20260906003928 20 308 0.0 0.0 0.00 0.00 0.00 80 1009.1
20260906003718 20 308 0.0 0.0 0.00 0.00 0.00 80 1009.1
20260906003617 20 308 0.0 0.0 0.00 0.00 0.00 80 1009.1
20260906003531 20 308 0.0 0.0 0.00 0.00 0.00 79 1009.0
20260906003529 20 308 0.0 0.0 0.00 0.00 0.00 79 1009.1
20260906003522 20 308 0.0 0.0 0.00 0.00 0.00 79 1009.0
20260906003317 20 308 0.0 0.0 0.00 0.00 0.00 79 1009.0
20260906003217 20 308 0.0 0.0 0.00 0.00 0.00 79 1009.0
20260906003116 20 308 0.0 0.0 0.00 0.00 0.00 79 1009.0
20260906003043 20 308 0.0 0.0 0.00 0.00 0.00 79 1008.9
20260906003029 20 308 0.0 0.0 0.00 0.00 0.00 79 1009.0
20260906002924 20 308 0.0 0.0 0.00 0.00 0.00 78 1008.9
20260906002713 20 308 0.0 0.0 0.00 0.00 0.00 78 1008.9
20260906002628 20 308 0.0 0.0 0.00 0.00 0.00 77 1008.9
20260906002623 20 308 0.0 0.0 0.00 0.00 0.00 78 1008.9
20260906002529 20 308 0.0 0.0 0.00 0.00 0.00 77 1008.9
20260906002413 20 308 0.0 0.0 0.00 0.00 0.00 77 1008.8
20260906002313 20 308 0.0 0.0 0.00 0.00 0.00 77 1008.8
20260906002213 20 308 0.0 0.0 0.00 0.00 0.00 77 1008.8
20260906002113 20 308 0.0 0.0 0.00 0.00 0.00 77 1008.7
20260906002030 20 308 0.0 0.0 0.00 0.00 0.00 77 1008.8
20260906002011 20 308 0.0 0.0 0.00 0.00 0.00 77 1008.8
20260906001912 20 308 0.0 0.0 0.00 0.00 0.00 77 1008.8
20260906001825 20 308 0.0 0.0 0.00 0.00 0.00 76 1008.8
20260906001820 20 308 0.0 0.0 0.00 0.00 0.00 76 1008.8
20260906001645 21 308 0.0 0.0 0.00 0.00 0.00 76 1008.8
20260906001640 21 308 0.0 0.0 0.00 0.00 0.00 76 1008.8
20260906001635 21 308 0.0 0.0 0.00 0.00 0.00 76 1008.8
20260906001529 21 308 0.0 0.0 0.00 0.00 0.00 76 1008.8
20260906001517 21 308 0.0 0.0 0.00 0.00 0.00 76 1008.8
20260906001310 21 308 0.0 0.0 0.00 0.00 0.00 75 1008.8
20260906001209 21 308 0.0 0.0 0.00 0.00 0.00 75 1008.8
20260906001109 21 308 0.0 0.0 0.00 0.00 0.00 75 1008.8
20260906001029 21 308 0.0 0.0 0.00 0.00 0.00 75 1008.7
20260906001009 21 308 0.0 0.0 0.00 0.00 0.00 75 1008.8
20260906000908 21 308 0.0 0.0 0.00 0.00 0.00 74 1008.7
20260906000808 21 308 0.0 0.0 0.00 0.00 0.00 74 1008.7
20260906000722 21 308 0.0 0.0 0.00 0.00 0.00 74 1008.7
20260906000716 21 308 0.0 0.0 0.00 0.00 0.00 74 1008.6
20260906000529 21 308 0.0 0.0 0.00 0.00 0.00 74 1008.6
20260906000506 21 308 0.0 0.0 0.00 0.00 0.00 74 1008.6
20260906000405 21 308 0.0 0.0 0.00 0.00 0.00 74 1008.6
20260906000305 21 308 0.0 0.0 0.00 0.00 0.00 74 1008.5
20260906000205 21 308 0.0 0.0 0.00 0.00 0.00 73 1008.6
20260906000104 21 308 0.0 0.0 0.00 0.00 0.00 72 1008.6
20260906000044 21 308 0.0 0.0 0.00 0.00 0.00 71 1008.6
20260906000004 21 308 0.0 0.0 0.00 0.00 0.00 71 1008.6
20260905235910 21 308 0.0 0.0 0.00 0.00 0.00 71 1008.6
20260905235902 21 308 0.0 0.0 0.00 0.00 0.00 71 1008.6
20260905235802 21 308 0.0 0.0 0.00 0.00 0.00 71 1008.6
20260905235704 21 308 0.0 0.0 0.00 0.00 0.00 71 1008.6
20260905235616 22 308 0.0 0.0 0.00 0.00 0.00 70 1008.6
20260905235612 21 308 0.0 0.0 0.00 0.00 0.00 71 1008.6
20260905235529 22 308 0.0 0.0 0.00 0.00 0.00 70 1008.6
20260905235417 22 308 0.0 0.0 0.00 0.00 0.00 70 1008.6
20260905235412 22 308 0.0 0.0 0.00 0.00 0.00 70 1008.6
20260905235403 22 308 0.0 0.0 0.00 0.00 0.00 70 1008.6
20260905235249 22 308 0.0 0.0 0.00 0.00 0.00 69 1008.5
20260905235136 22 308 0.0 0.0 0.00 0.00 0.00 69 1008.5
20260905235029 22 308 0.0 0.0 0.00 0.00 0.00 68 1008.5
20260905235023 22 308 0.0 0.0 0.00 0.00 0.00 68 1008.5
20260905234908 22 308 0.0 0.0 0.00 0.00 0.00 68 1008.5
20260905234859 22 308 0.0 0.0 0.00 0.00 0.00 68 1008.5
20260905234638 22 308 0.0 0.0 0.00 0.00 0.00 67 1008.4
20260905234632 22 308 0.0 0.0 0.00 0.00 0.00 68 1008.5
20260905234623 22 308 0.0 0.0 0.00 0.00 0.00 67 1008.5
20260905234529 22 308 0.0 0.0 0.00 0.00 0.00 68 1008.5
20260905234221 22 308 0.0 0.0 0.00 0.00 0.00 67 1008.4
20260905234108 22 308 0.0 0.0 0.00 0.00 0.00 67 1008.4
20260905234030 22 308 0.0 0.0 0.00 0.00 0.00 68 1008.3
20260905233925 23 308 0.0 0.0 0.00 0.00 0.00 68 1008.3
20260905233920 23 308 0.0 0.0 0.00 0.00 0.00 68 1008.4
20260905233807 23 308 0.0 0.0 0.00 0.00 0.00 67 1008.4
20260905233557 23 308 0.0 0.0 0.00 0.00 0.00 65 1008.3
20260905233529 23 308 0.0 0.0 0.00 0.00 0.00 64 1008.3
20260905233457 23 308 0.0 0.0 0.00 0.00 0.00 64 1008.3
20260905233406 23 308 0.0 0.0 0.00 0.00 0.00 63 1008.3
20260905233356 23 308 0.0 0.0 0.00 0.00 0.00 63 1008.3
20260905233256 23 308 0.0 0.0 0.00 0.00 0.00 62 1008.3
20260905233155 23 308 0.0 0.0 0.00 0.00 0.00 62 1008.2
20260905233055 23 308 0.0 0.0 0.00 0.00 0.00 62 1008.2
20260905233029 23 308 0.0 0.0 0.00 0.00 0.00 61 1008.2
20260905232955 23 308 0.0 0.0 0.00 0.00 0.00 61 1008.2
20260905232905 23 308 0.0 0.0 0.00 0.00 0.00 61 1008.2
20260905232853 23 308 0.0 0.0 0.00 0.00 0.00 61 1008.2
20260905232753 23 308 0.0 0.0 0.00 0.00 0.00 61 1008.2
20260905232714 23 308 0.0 0.0 0.00 0.00 0.00 61 1008.2
20260905232652 23 308 0.0 0.0 0.00 0.00 0.00 61 1008.2
20260905232620 23 308 0.0 0.0 0.00 0.00 0.00 61 1008.2
20260905232615 23 308 0.0 0.0 0.00 0.00 0.00 60 1008.3
20260905232606 23 308 0.0 0.0 0.00 0.00 0.00 61 1008.2
20260905232529 23 308 0.0 0.0 0.00 0.00 0.00 61 1008.2
20260905232306 23 308 0.0 0.0 0.00 0.00 0.00 61 1008.2
20260905232259 23 308 0.0 0.0 0.00 0.00 0.00 61 1008.2
20260905232123 23 308 0.0 0.0 0.00 0.00 0.00 60 1008.1
20260905232050 23 308 0.0 0.0 0.00 0.00 0.00 60 1008.2
20260905232029 23 308 0.0 0.0 0.00 0.00 0.00 60 1008.1
20260905232012 23 308 0.0 0.0 0.00 0.00 0.00 60 1008.1
20260905231849 23 308 0.0 0.0 0.00 0.00 0.00 60 1008.1
20260905231749 23 308 0.0 0.0 0.00 0.00 0.00 60 1008.1
20260905231648 24 308 0.0 0.0 0.00 0.00 0.00 60 1008.2
20260905231548 24 308 0.0 0.0 0.00 0.00 0.00 60 1008.2
20260905231529 24 308 0.0 0.0 0.00 0.00 0.00 60 1008.2
20260905231448 24 308 0.0 0.0 0.00 0.00 0.00 60 1008.3
20260905231402 24 308 0.0 0.0 0.00 0.00 0.00 61 1008.3
20260905231347 24 308 0.0 0.0 0.00 0.00 0.00 61 1008.3
20260905231247 24 308 0.0 0.0 0.00 0.00 0.00 60 1008.3
20260905231147 24 308 0.0 0.0 0.00 0.00 0.00 60 1008.3
20260905231045 24 308 0.0 0.0 0.00 0.00 0.00 60 1008.3
20260905231029 24 308 0.0 0.0 0.00 0.00 0.00 60 1008.2
20260905230959 24 308 0.0 0.0 0.00 0.00 0.00 60 1008.3
20260905230950 24 308 0.0 0.0 0.00 0.00 0.00 60 1008.3
20260905230744 24 308 0.0 0.0 0.00 0.00 0.00 60 1008.3
20260905230644 25 308 0.0 0.0 0.00 0.00 0.00 59 1008.3
20260905230543 25 308 0.0 0.0 0.00 0.00 0.00 59 1008.3
20260905230529 25 308 0.0 0.0 0.00 0.00 0.00 59 1008.1
20260905230443 25 308 0.0 0.0 0.00 0.00 0.00 59 1008.2
20260905230340 25 308 0.0 0.0 0.00 0.00 0.00 58 1008.2
20260905230241 25 308 0.0 0.0 0.00 0.00 0.00 58 1008.2
20260905230154 25 308 0.0 0.0 0.00 0.00 0.00 57 1008.2
20260905230150 25 308 0.0 0.0 0.00 0.00 0.00 57 1008.2
20260905230029 25 308 0.0 0.0 0.00 0.00 0.00 57 1008.1
20260905225940 25 308 0.0 0.0 0.00 0.00 0.00 58 1008.2
20260905225857 25 312 0.0 0.0 0.00 0.00 0.00 58 1008.2
20260905225840 25 312 0.0 0.0 0.00 0.00 0.00 58 1008.2
20260905225813 25 312 0.0 0.0 0.00 0.00 0.00 56 1008.1
20260905225700 25 312 0.0 0.0 0.00 0.00 0.00 57 1008.1
20260905225656 25 312 0.0 0.0 0.00 0.00 0.00 57 1008.2
20260905225530 25 312 0.0 0.0 0.00 0.00 0.00 55 1008.0
20260905225357 25 286 0.0 0.0 0.00 0.00 0.00 57 1008.1
20260905225337 25 286 0.0 0.0 0.00 0.00 0.00 56 1008.1
20260905225237 25 286 0.0 0.0 0.00 0.00 0.00 56 1008.1
20260905225137 25 286 0.0 0.0 0.00 0.00 0.00 56 1008.1
20260905225036 25 286 0.0 0.0 0.00 0.00 0.00 56 1008.2
20260905225029 25 286 0.0 0.0 0.00 0.00 0.00 56 1008.0
20260905224936 25 286 0.0 0.0 0.00 0.00 0.00 56 1008.1
20260905224835 26 286 0.0 0.0 0.00 0.00 0.00 55 1008.1
20260905224734 26 286 0.0 0.0 0.00 0.00 0.00 55 1008.1
20260905224635 26 286 0.0 0.0 0.00 0.00 0.00 55 1008.1
20260905224534 26 286 0.0 0.0 0.00 0.00 0.00 55 1008.2
20260905224529 26 286 0.0 0.0 0.00 0.00 0.00 55 1008.0
20260905224434 26 286 0.0 0.0 0.00 0.00 0.00 55 1008.1
20260905224356 26 286 0.0 0.0 0.00 0.00 0.00 55 1008.1
20260905224332 26 286 0.0 0.0 0.00 0.00 0.00 53 1008.1
20260905224234 26 286 0.0 0.0 0.00 0.00 0.00 54 1008.1
20260905224132 26 286 0.0 0.0 0.00 0.00 0.00 53 1008.1
20260905224031 26 286 0.0 0.0 0.00 0.00 0.00 53 1008.1
20260905224029 26 286 0.0 0.0 0.00 0.00 0.00 53 1008.0
20260905223930 26 286 0.0 0.0 0.00 0.00 0.00 53 1008.1
20260905223842 26 286 0.0 0.0 0.00 0.00 0.00 52 1008.1
20260905223838 26 286 0.0 0.0 0.00 0.00 0.00 52 1008.1
20260905223629 26 286 0.0 0.0 0.00 0.00 0.00 52 1008.1
20260905223530 26 281 0.0 0.0 0.00 0.00 0.00 52 1008.1
20260905223429 26 296 0.0 0.0 0.00 0.00 0.00 52 1008.1
20260905223356 26 296 0.0 0.0 0.00 0.00 0.00 52 1008.1
20260905223329 26 296 0.0 0.0 0.00 0.00 0.00 52 1008.1
20260905223227 26 296 0.0 0.0 0.00 0.00 0.00 51 1008.1
20260905223127 26 296 0.0 0.0 0.00 0.00 0.00 52 1008.2
20260905223029 26 291 0.0 0.0 0.00 0.00 0.00 52 1008.1
20260905223027 26 291 0.0 0.0 0.00 0.00 0.00 52 1008.2
20260905222925 26 291 0.0 0.0 0.00 0.00 0.00 51 1008.2
20260905222853 26 291 0.0 0.0 0.00 0.00 0.00 51 1008.2
20260905222826 26 291 0.0 0.0 0.00 0.00 0.00 51 1008.2
20260905222726 26 291 0.0 0.0 0.00 0.00 0.00 51 1008.2
20260905222623 26 291 0.0 0.0 0.00 0.00 0.00 51 1008.2
20260905222559 26 291 0.0 0.0 0.00 0.00 0.00 51 1008.1
20260905222523 26 291 0.0 0.0 0.00 0.00 0.00 51 1008.2
20260905222503 26 290 0.0 0.0 0.00 0.00 0.00 51 1008.2
20260905222455 26 290 0.0 0.0 0.00 0.00 0.00 51 1008.2
20260905222344 26 281 0.0 0.0 0.00 0.00 0.00 51 1008.1
20260905222340 26 290 0.0 0.0 0.00 0.00 0.00 51 1008.2
20260905222227 26 296 0.0 0.0 0.00 0.00 0.00 50 1008.2
20260905222218 26 281 0.0 0.0 0.00 0.00 0.00 51 1008.2
20260905222029 27 281 0.0 0.0 0.00 0.00 0.00 51 1008.1
20260905221832 26 281 0.0 0.0 0.00 0.00 0.00 51 1008.0
20260905221828 26 281 0.0 0.0 0.00 0.00 0.00 51 1008.1
20260905221619 26 305 0.0 0.0 0.00 0.00 0.00 51 1008.0
20260905221529 27 305 0.0 0.0 0.00 0.00 0.00 50 1007.9
20260905221518 26 305 0.0 0.0 0.00 0.00 0.00 50 1008.0
20260905221418 26 306 0.0 0.0 0.00 0.00 0.00 50 1007.9
20260905221351 26 304 0.0 0.0 0.00 0.00 0.00 50 1007.9
20260905221318 26 269 0.0 0.0 0.00 0.00 0.00 51 1007.9
20260905221310 26 269 0.0 0.0 0.00 0.00 0.00 50 1007.9
20260905221306 26 269 0.0 0.0 0.00 0.00 0.00 51 1007.9
20260905221301 26 269 0.0 0.0 0.00 0.00 0.00 51 1007.9
20260905221030 27 269 0.0 0.0 0.00 0.00 0.00 51 1007.9
20260905220929 26 269 0.0 0.0 0.00 0.00 0.00 50 1007.9
20260905220921 26 269 0.0 0.0 0.00 0.00 0.00 50 1007.9
20260905220713 26 269 0.0 0.0 0.00 0.00 0.00 51 1007.8
20260905220627 26 269 0.0 0.0 0.00 0.00 0.00 51 1007.8
20260905220623 26 269 0.0 0.0 0.00 0.00 0.00 51 1007.8
20260905220529 27 269 0.0 0.0 0.00 0.00 0.00 50 1007.9
20260905220413 26 269 0.0 0.0 0.00 0.00 0.00 50 1007.9
20260905220349 26 269 0.0 0.0 0.00 0.00 0.00 50 1007.9
20260905220313 26 269 0.0 0.0 0.00 0.00 0.00 50 1007.9
20260905220248 27 326 0.0 0.0 0.00 0.00 0.00 50 1007.9
20260905220242 27 269 0.0 0.0 0.00 0.00 0.00 50 1007.9
20260905220129 27 268 0.0 0.0 0.00 0.00 0.00 50 1007.9
20260905220029 27 355 0.0 0.0 0.00 0.00 0.00 50 1007.9
20260905215849 27 342 0.0 0.0 0.00 0.00 0.00 49 1007.9
20260905215823 27 210 0.0 0.0 0.00 0.00 0.00 49 1007.9
20260905215818 27 344 0.0 0.0 0.00 0.00 0.00 50 1007.9
20260905215621 27 331 0.0 0.0 0.00 0.00 0.00 49 1007.9
20260905215617 27 329 0.0 0.0 0.00 0.00 0.00 49 1007.9
20260905215544 27 331 0.0 0.0 0.00 0.00 0.00 49 1007.9
20260905215408 27 259 0.0 0.0 0.00 0.00 0.00 49 1007.9
20260905215342 27 259 0.0 0.0 0.00 0.00 0.00 49 1007.9
20260905215229 27 259 0.0 0.0 0.00 0.00 0.00 49 1007.8
20260905215116 27 259 0.0 0.0 0.00 0.00 0.00 49 1007.8
20260905215029 27 259 0.0 0.0 0.00 0.00 0.00 48 1007.9
20260905214955 27 284 0.0 0.0 0.00 0.00 0.00 49 1007.8
20260905214806 27 284 0.0 0.0 0.00 0.00 0.00 49 1007.9
20260905214705 27 284 0.0 0.0 0.00 0.00 0.00 49 1007.9
20260905214605 27 288 0.0 0.0 0.00 0.00 0.00 49 1007.9
20260905214529 27 288 0.0 0.0 0.00 0.00 0.00 50 1007.9
20260905214505 27 288 0.0 0.0 0.00 0.00 0.00 50 1007.9
20260905214404 27 288 0.0 0.0 0.00 0.00 0.00 50 1007.9
20260905214345 27 288 0.0 0.0 0.00 0.00 0.00 50 1007.9
20260905214304 27 288 0.0 0.0 0.00 0.00 0.00 50 1007.9
20260905214202 27 288 0.0 0.0 0.00 0.00 0.00 50 1007.9
20260905214102 27 288 0.0 0.0 0.00 0.00 0.00 48 1007.9
20260905214029 27 296 0.0 0.0 0.00 0.00 0.00 48 1007.9
20260905214002 27 298 0.0 0.0 0.00 0.00 0.00 48 1007.9
20260905213901 27 298 0.0 0.0 0.00 0.00 0.00 49 1007.8
20260905213843 27 298 0.0 0.0 0.00 0.00 0.00 49 1007.8
20260905213801 27 269 0.0 0.0 0.00 0.00 0.00 51 1007.8
20260905213700 27 269 0.0 0.0 0.00 0.00 0.00 51 1007.8
20260905213614 27 269 0.0 0.0 0.00 0.00 0.00 51 1007.8
20260905213610 27 269 0.0 0.0 0.00 0.00 0.00 51 1007.8
20260905213529 27 269 0.0 0.0 0.00 0.00 0.00 51 1007.8
20260905213400 27 269 0.0 0.0 0.00 0.00 0.00 51 1007.8
20260905213341 27 269 0.0 0.0 0.00 0.00 0.00 51 1007.8
20260905213300 27 269 0.0 0.0 0.00 0.00 0.00 51 1007.8
20260905213159 27 269 0.0 0.0 0.00 0.00 0.00 50 1007.7
20260905213059 27 269 0.0 0.0 0.00 0.00 0.00 50 1007.7
20260905213030 27 269 0.0 0.0 0.00 0.00 0.00 51 1007.8
20260905212959 27 269 0.0 0.0 0.00 0.00 0.00 51 1007.8
20260905212949 27 269 0.0 0.0 0.00 0.00 0.00 51 1007.8
20260905212941 27 269 0.0 0.0 0.00 0.00 0.00 51 1007.8
20260905212830 27 269 0.0 0.0 0.00 0.00 0.00 50 1007.8
20260905212607 27 252 0.0 0.0 0.00 0.00 0.00 48 1007.8
20260905212603 27 269 0.0 0.0 0.00 0.00 0.00 50 1007.8
20260905212554 27 267 0.0 0.0 0.00 0.00 0.00 49 1007.8
20260905212529 27 269 0.0 0.0 0.00 0.00 0.00 49 1007.8
20260905212256 27 252 0.0 0.0 0.00 0.00 0.00 48 1007.8
20260905212156 27 251 0.0 0.0 0.00 0.00 0.00 48 1007.8
20260905212124 27 247 0.0 0.0 0.00 0.00 0.00 48 1007.8
20260905212056 27 237 0.0 0.0 0.00 0.00 0.00 48 1007.8
20260905212029 27 254 0.0 0.0 0.00 0.00 0.00 48 1007.8
20260905212022 27 246 0.0 0.0 0.00 0.00 0.00 47 1007.8
20260905212017 27 260 0.0 0.0 0.00 0.00 0.00 48 1007.8
20260905212008 27 248 0.0 0.0 0.00 0.00 0.00 48 1007.8
20260905211652 27 217 0.0 0.0 0.00 0.00 0.00 47 1007.8
20260905211605 27 300 0.0 0.0 0.00 0.00 0.00 48 1007.8
20260905211601 27 298 0.0 0.0 0.00 0.00 0.00 47 1007.8
20260905211529 27 301 0.0 0.0 0.00 0.00 0.00 48 1007.8
20260905211334 27 268 0.0 0.0 0.00 0.00 0.00 48 1007.8
20260905211250 27 267 0.0 0.0 0.00 0.00 0.00 49 1007.7
20260905211149 27 286 0.0 0.0 0.00 0.00 0.00 48 1007.8
20260905211049 27 281 0.0 0.0 0.00 0.00 0.00 49 1007.7
20260905211029 27 283 0.0 0.0 0.00 0.00 0.00 48 1007.7
20260905210949 27 283 0.0 0.0 0.00 0.00 0.00 48 1007.7
20260905210907 27 275 0.0 0.0 0.00 0.00 0.00 49 1007.8
20260905210855 27 282 0.0 0.0 0.00 0.00 0.00 48 1007.8
20260905210648 27 294 0.0 0.0 0.00 0.00 0.00 49 1007.8
20260905210622 27 273 0.0 0.0 0.00 0.00 0.00 49 1007.8
20260905210547 27 297 0.0 0.0 0.00 0.00 0.00 48 1007.7
20260905210529 27 301 0.0 0.0 0.00 0.00 0.00 48 1007.8
20260905210516 27 274 0.0 0.0 0.00 0.00 0.00 48 1007.8
20260905210511 27 291 0.0 0.0 0.00 0.00 0.00 48 1007.8
20260905210502 27 272 0.0 0.0 0.00 0.00 0.00 49 1007.8
20260905210146 27 288 0.0 0.0 0.00 0.00 0.00 48 1007.8
20260905210046 27 261 0.0 0.0 0.00 0.00 0.00 48 1007.7
20260905210029 27 304 0.0 0.0 0.00 0.00 0.00 48 1007.7
20260905205945 27 302 0.0 0.0 0.00 0.00 0.00 48 1007.7
20260905205845 27 264 0.0 0.0 0.00 0.00 0.00 48 1007.7
20260905205828 27 264 0.0 0.0 0.00 0.00 0.00 50 1007.7
20260905205743 27 254 0.0 0.0 0.00 0.00 0.00 50 1007.7
20260905205643 27 255 0.0 0.0 0.00 0.00 0.00 50 1007.8
20260905205555 27 262 0.0 0.0 0.00 0.00 0.00 50 1007.7
20260905205551 27 262 0.0 0.0 0.00 0.00 0.00 50 1007.7
20260905205529 27 262 0.0 0.0 0.00 0.00 0.00 50 1007.7
20260905205328 27 261 0.0 0.0 0.00 0.00 0.00 50 1007.7
20260905205241 27 261 0.0 0.0 0.00 0.00 0.00 48 1007.7
20260905205141 27 259 0.0 0.0 0.00 0.00 0.00 50 1007.6
20260905205053 27 259 0.0 0.0 0.00 0.00 0.00 50 1007.5
20260905205049 27 259 0.0 0.0 0.00 0.00 0.00 50 1007.6
20260905205030 27 259 0.0 0.0 0.00 0.00 0.00 50 1007.5
20260905204840 27 259 0.0 0.0 0.00 0.00 0.00 51 1007.5
20260905204826 27 259 0.0 0.0 0.00 0.00 0.00 51 1007.5
20260905204807 27 259 0.0 0.0 0.00 0.00 0.00 51 1007.6
20260905204802 27 259 0.0 0.0 0.00 0.00 0.00 48 1007.6
20260905204757 27 259 0.0 0.0 0.00 0.00 0.00 51 1007.6
20260905204529 27 259 0.0 0.0 0.00 0.00 0.00 48 1007.6
20260905204439 27 301 0.0 0.0 0.00 0.00 0.00 47 1007.6
20260905204406 27 300 0.0 0.0 0.00 0.00 0.00 48 1007.6
20260905204358 27 300 0.0 0.0 0.00 0.00 0.00 48 1007.6
20260905204247 27 331 0.0 0.0 0.00 0.00 0.00 47 1007.7
20260905204036 27 308 0.0 0.0 0.00 0.00 0.00 49 1007.7
20260905204029 27 308 0.0 0.0 0.00 0.00 0.00 48 1007.6
20260905203936 27 309 0.0 0.0 0.00 0.00 0.00 49 1007.6
20260905203906 27 317 0.0 0.0 0.00 0.00 0.00 47 1007.7
20260905203902 27 26 0.0 0.0 0.00 0.00 0.00 47 1007.7
20260905203848 27 306 0.0 0.0 0.00 0.00 0.00 48 1007.7
20260905203531 27 320 0.0 0.0 0.00 0.00 0.00 47 1007.7
20260905203445 27 235 0.0 0.0 0.00 0.00 0.00 48 1007.6
20260905203441 27 286 0.0 0.0 0.00 0.00 0.00 48 1007.6
20260905203325 27 234 0.0 0.0 0.00 0.00 0.00 48 1007.6
20260905203230 27 270 0.0 0.0 0.00 0.00 0.00 48 1007.6
20260905203129 27 326 0.0 0.0 0.00 0.00 0.00 50 1007.6
20260905203044 27 294 0.0 0.0 0.00 0.00 0.00 48 1007.7
20260905203029 27 326 0.0 0.0 0.00 0.00 0.00 49 1007.7
20260905202929 27 296 0.0 0.0 0.00 0.00 0.00 48 1007.7
20260905202829 27 302 0.0 0.0 0.00 0.00 0.00 50 1007.7
20260905202823 27 330 0.0 0.0 0.00 0.00 0.00 50 1007.7
20260905202728 27 305 0.0 0.0 0.00 0.00 0.00 51 1007.7
20260905202628 27 305 0.0 0.0 0.00 0.00 0.00 49 1007.8
20260905202539 27 305 0.0 0.0 0.00 0.00 0.00 51 1007.8
20260905202535 27 305 0.0 0.0 0.00 0.00 0.00 49 1007.8
20260905202529 27 305 0.0 0.0 0.00 0.00 0.00 51 1007.8
20260905202320 27 304 0.0 0.0 0.00 0.00 0.00 52 1007.8
20260905202225 27 82 0.0 0.0 0.00 0.00 0.00 51 1007.8
20260905202138 27 46 0.0 0.0 0.00 0.00 0.00 50 1007.8
20260905202133 27 82 0.0 0.0 0.00 0.00 0.00 51 1007.8
20260905202029 27 336 0.0 0.0 0.00 0.00 0.00 50 1007.8
20260905201923 27 336 0.0 0.0 0.00 0.00 0.00 50 1007.8
20260905201827 26 211 0.0 0.0 0.00 0.00 0.00 50 1007.8
20260905201820 26 155 0.0 0.0 0.00 0.00 0.00 50 1007.8
20260905201722 26 153 0.0 0.0 0.00 0.00 0.00 50 1007.8
20260905201622 26 274 0.0 0.0 0.00 0.00 0.00 50 1007.9
20260905201544 26 275 0.0 0.0 0.00 0.00 0.00 51 1007.8
20260905201522 26 275 0.0 0.0 0.00 0.00 0.00 51 1007.9
20260905201439 26 314 0.0 0.0 0.00 0.00 0.00 50 1007.9
20260905201435 26 306 0.0 0.0 0.00 0.00 0.00 51 1007.9
20260905201322 26 314 0.0 0.0 0.00 0.00 0.00 50 1007.9
20260905201220 27 290 0.0 0.0 0.00 0.00 0.00 51 1007.9
20260905201139 27 290 0.0 0.0 0.00 0.00 0.00 50 1008.0
20260905201030 27 290 0.0 0.0 0.00 0.00 0.00 53 1007.9
20260905201026 27 290 0.0 0.0 0.00 0.00 0.00 53 1008.0
20260905200816 27 289 0.0 0.0 0.00 0.00 0.00 52 1007.9
20260905200729 27 288 0.0 0.0 0.00 0.00 0.00 50 1008.0
20260905200724 27 288 0.0 0.0 0.00 0.00 0.00 51 1007.9
20260905200543 27 329 0.0 0.0 0.00 0.00 0.00 50 1008.0
20260905200529 27 322 0.0 0.0 0.00 0.00 0.00 52 1007.9
20260905200515 27 294 0.0 0.0 0.00 0.00 0.00 52 1008.0
20260905200430 27 322 0.0 0.0 0.00 0.00 0.00 51 1007.9
20260905200315 27 323 0.0 0.0 0.00 0.00 0.00 50 1008.0
20260905200215 27 327 0.0 0.0 0.00 0.00 0.00 49 1007.9
20260905200113 27 310 0.0 0.0 0.00 0.00 0.00 50 1007.9
20260905200058 27 275 0.0 0.0 0.00 0.00 0.00 51 1007.9
20260905200054 27 279 0.0 0.0 0.00 0.00 0.00 51 1007.9
20260905200050 27 321 0.0 0.0 0.00 0.00 0.00 53 1007.9
20260905200044 27 269 0.0 0.0 0.00 0.00 0.00 50 1007.9
20260905195821 27 269 0.0 0.0 0.00 0.00 0.00 51 1007.9
20260905195624 27 49 0.0 0.0 0.00 0.00 0.00 52 1007.9
20260905195620 27 331 0.0 0.0 0.00 0.00 0.00 51 1007.9
20260905195529 27 49 0.0 0.0 0.00 0.00 0.00 52 1007.9
20260905195410 27 49 0.0 0.0 0.00 0.00 0.00 53 1007.9
20260905195328 27 282 0.0 0.0 0.00 0.00 0.00 51 1007.9
20260905195318 27 260 0.0 0.0 0.00 0.00 0.00 53 1008.0
20260905195109 26 311 0.0 0.0 0.00 0.00 0.00 51 1007.9
20260905195029 26 315 0.0 0.0 0.00 0.00 0.00 52 1007.9
20260905195009 26 315 0.0 0.0 0.00 0.00 0.00 52 1007.9
20260905194908 26 315 0.0 0.0 0.00 0.00 0.00 53 1007.9
20260905194836 26 301 0.0 0.0 0.00 0.00 0.00 55 1007.8
20260905194830 26 308 0.0 0.0 0.00 0.00 0.00 55 1007.8
20260905194717 26 304 0.0 0.0 0.00 0.00 0.00 55 1007.8
20260905194529 26 238 0.0 0.0 0.00 0.00 0.00 55 1007.8
20260905194508 26 243 0.0 0.0 0.00 0.00 0.00 55 1007.8
20260905194407 26 295 0.0 0.0 0.00 0.00 0.00 56 1007.8
20260905194315 26 272 0.0 0.0 0.00 0.00 0.00 54 1007.8
20260905194305 26 273 0.0 0.0 0.00 0.00 0.00 54 1007.8
20260905194204 26 273 0.0 0.0 0.00 0.00 0.00 54 1007.9
20260905194103 26 299 0.0 0.0 0.00 0.00 0.00 55 1007.9
20260905194039 26 303 0.0 0.0 0.00 0.00 0.00 54 1008.0
20260905194029 26 304 0.0 0.0 0.00 0.00 0.00 54 1007.8
20260905194004 26 304 0.0 0.0 0.00 0.00 0.00 54 1007.9
20260905193924 26 304 0.0 0.0 0.00 0.00 0.00 54 1008.0
20260905193803 26 304 0.0 0.0 0.00 0.00 0.00 54 1008.0
20260905193702 26 309 0.0 0.0 0.00 0.00 0.00 56 1008.0
20260905193601 26 314 0.0 0.0 0.00 0.00 0.00 55 1008.1
20260905193529 26 313 0.0 0.0 0.00 0.00 0.00 53 1007.9
20260905193501 26 313 0.0 0.0 0.00 0.00 0.00 53 1008.0
20260905193401 26 320 0.0 0.0 0.00 0.00 0.00 54 1008.1
20260905193315 26 298 0.0 0.0 0.00 0.00 0.00 55 1008.1
20260905193301 26 297 0.0 0.0 0.00 0.00 0.00 55 1008.1
20260905193201 26 232 0.0 0.0 0.00 0.00 0.00 55 1008.1
20260905193100 26 232 0.0 0.0 0.00 0.00 0.00 54 1008.1
20260905193044 26 294 0.0 0.0 0.00 0.00 0.00 55 1008.0
20260905193037 26 296 0.0 0.0 0.00 0.00 0.00 52 1008.1
20260905193000 26 294 0.0 0.0 0.00 0.00 0.00 55 1008.1
20260905192924 26 294 0.0 0.0 0.00 0.00 0.00 54 1008.1
20260905192759 26 296 0.0 0.0 0.00 0.00 0.00 52 1008.0
20260905192659 26 347 0.0 0.0 0.00 0.00 0.00 56 1008.1
20260905192558 26 348 0.0 0.0 0.00 0.00 0.00 55 1008.0
20260905192529 26 348 0.0 0.0 0.00 0.00 0.00 54 1008.1
20260905192457 26 348 0.0 0.0 0.00 0.00 0.00 54 1008.1
20260905192358 26 331 0.0 0.0 0.00 0.00 0.00 55 1008.1
20260905192317 26 310 0.0 0.0 0.00 0.00 0.00 54 1008.1
20260905192311 26 278 0.0 0.0 0.00 0.00 0.00 56 1008.1
20260905192307 26 310 0.0 0.0 0.00 0.00 0.00 54 1008.1
20260905192057 26 275 0.0 0.0 0.00 0.00 0.00 54 1008.1
20260905192044 26 275 0.0 0.0 0.00 0.00 0.00 57 1008.1
20260905191956 26 275 0.0 0.0 0.00 0.00 0.00 57 1008.1
20260905191937 26 285 0.0 0.0 0.00 0.00 0.00 56 1008.1
20260905191932 26 285 0.0 0.0 0.00 0.00 0.00 57 1008.1
20260905191923 26 285 0.0 0.0 0.00 0.00 0.00 56 1008.1
20260905191704 26 285 0.0 0.0 0.00 0.00 0.00 54 1008.1
20260905191529 26 306 0.0 0.0 0.00 0.00 0.00 57 1008.0
20260905191455 26 306 0.0 0.0 0.00 0.00 0.00 57 1008.0
20260905191354 26 306 0.0 0.0 0.00 0.00 0.00 54 1008.1
20260905191311 26 301 0.0 0.0 0.00 0.00 0.00 56 1008.1
20260905191254 26 300 0.0 0.0 0.00 0.00 0.00 56 1008.1
20260905191153 26 24 0.0 0.0 0.00 0.00 0.00 55 1008.1
20260905191105 26 288 0.0 0.0 0.00 0.00 0.00 54 1008.1
20260905191101 26 345 0.0 0.0 0.00 0.00 0.00 55 1008.1
20260905191029 26 288 0.0 0.0 0.00 0.00 0.00 55 1008.1
20260905190851 27 288 0.0 0.0 0.00 0.00 0.00 55 1008.0
20260905190809 27 288 0.0 0.0 0.00 0.00 0.00 54 1008.0
20260905190751 27 288 0.0 0.0 0.00 0.00 0.00 54 1008.1
20260905190650 27 288 0.0 0.0 0.00 0.00 0.00 54 1008.1
20260905190550 27 288 0.0 0.0 0.00 0.00 0.00 53 1008.0
20260905190535 27 288 0.0 0.0 0.00 0.00 0.00 54 1008.0
20260905190529 27 287 0.0 0.0 0.00 0.00 0.00 53 1008.1
20260905190450 27 287 0.0 0.0 0.00 0.00 0.00 54 1008.1
20260905190418 27 288 0.0 0.0 0.00 0.00 0.00 54 1008.0
20260905190249 27 288 0.0 0.0 0.00 0.00 0.00 54 1008.0
20260905190149 27 288 0.0 0.0 0.00 0.00 0.00 52 1008.0
20260905190048 27 288 0.0 0.0 0.00 0.00 0.00 51 1007.9
20260905190030 27 360 0.0 0.0 0.00 0.00 0.00 52 1007.9
20260905185947 27 288 0.0 0.0 0.00 0.00 0.00 52 1007.9
20260905185847 27 11 0.0 0.0 0.00 0.00 0.00 53 1007.9
20260905185809 27 13 0.0 0.0 0.00 0.00 0.00 53 1007.9
20260905185746 27 13 0.0 0.0 0.00 0.00 0.00 53 1007.9
20260905185659 27 295 0.0 0.0 0.00 0.00 0.00 52 1008.0
20260905185655 27 13 0.0 0.0 0.00 0.00 0.00 53 1007.9
20260905185559 27 295 0.0 0.0 0.00 0.00 0.00 53 1008.0
20260905185458 27 294 0.0 0.0 0.00 0.00 0.00 54 1008.0
20260905185454 27 294 0.0 0.0 0.00 0.00 0.00 53 1008.0
20260905185306 27 297 0.0 0.0 0.00 0.00 0.00 54 1008.0
20260905185244 27 297 0.0 0.0 0.00 0.00 0.00 53 1008.0
20260905185143 27 318 0.0 0.0 0.00 0.00 0.00 54 1008.0
20260905185042 27 319 0.0 0.0 0.00 0.00 0.00 54 1008.0
20260905185029 27 319 0.0 0.0 0.00 0.00 0.00 53 1008.0
20260905184942 27 319 0.0 0.0 0.00 0.00 0.00 53 1008.0
20260905184842 27 319 0.0 0.0 0.00 0.00 0.00 53 1008.1
20260905184805 27 337 0.0 0.0 0.00 0.00 0.00 51 1008.1
20260905184740 27 335 0.0 0.0 0.00 0.00 0.00 53 1008.1
20260905184707 27 312 0.0 0.0 0.00 0.00 0.00 53 1008.1
20260905184701 27 271 0.0 0.0 0.00 0.00 0.00 53 1008.1
20260905184548 27 250 0.0 0.0 0.00 0.00 0.00 52 1008.1
20260905184529 27 12 0.0 0.0 0.00 0.00 0.00 53 1008.1
20260905184414 27 296 0.0 0.0 0.00 0.00 0.00 52 1008.1
20260905184239 27 312 0.0 0.0 0.00 0.00 0.00 53 1008.2
20260905184137 27 19 0.0 0.0 0.00 0.00 0.00 54 1008.1
20260905184050 27 296 0.0 0.0 0.00 0.00 0.00 53 1008.2
20260905184046 27 306 0.0 0.0 0.00 0.00 0.00 54 1008.1
20260905184029 27 296 0.0 0.0 0.00 0.00 0.00 53 1008.2
20260905183836 27 299 0.0 0.0 0.00 0.00 0.00 54 1008.2
20260905183806 27 262 0.0 0.0 0.00 0.00 0.00 55 1008.2
20260905183736 27 260 0.0 0.0 0.00 0.00 0.00 55 1008.2
20260905183634 27 261 0.0 0.0 0.00 0.00 0.00 55 1008.2
20260905183544 27 261 0.0 0.0 0.00 0.00 0.00 56 1008.2
20260905183535 27 261 0.0 0.0 0.00 0.00 0.00 56 1008.2
20260905183507 27 261 0.0 0.0 0.00 0.00 0.00 55 1008.2
20260905183503 27 261 0.0 0.0 0.00 0.00 0.00 55 1008.2
20260905183457 27 261 0.0 0.0 0.00 0.00 0.00 56 1008.2
20260905183340 27 261 0.0 0.0 0.00 0.00 0.00 55 1008.2
20260905183133 27 261 0.0 0.0 0.00 0.00 0.00 53 1008.2
20260905183100 27 236 0.0 0.0 0.00 0.00 0.00 52 1008.1
20260905183056 27 273 0.0 0.0 0.00 0.00 0.00 52 1008.0
20260905183050 27 261 0.0 0.0 0.00 0.00 0.00 53 1008.1
20260905183029 27 261 0.0 0.0 0.00 0.00 0.00 53 1008.1
20260905182803 27 273 0.0 0.0 0.00 0.00 0.00 53 1008.0
20260905182731 27 262 0.0 0.0 0.00 0.00 0.00 53 1008.0
20260905182644 27 261 0.0 0.0 0.00 0.00 0.00 52 1008.0
20260905182640 27 262 0.0 0.0 0.00 0.00 0.00 53 1008.0
20260905182530 27 261 0.0 0.0 0.00 0.00 0.00 52 1008.1
20260905182441 27 265 0.0 0.0 0.00 0.00 0.00 53 1008.1
20260905182432 27 271 0.0 0.0 0.00 0.00 0.00 53 1008.1
20260905182321 27 288 0.0 0.0 0.00 0.00 0.00 52 1008.0
20260905182315 27 265 0.0 0.0 0.00 0.00 0.00 53 1008.1
20260905182309 27 265 0.0 0.0 0.00 0.00 0.00 52 1008.1
20260905182155 27 266 0.0 0.0 0.00 0.00 0.00 51 1008.1
20260905182029 27 301 0.0 0.0 0.00 0.00 0.00 51 1008.0
20260905181803 27 302 0.0 0.0 0.00 0.00 0.00 52 1008.0
20260905181727 27 302 0.0 0.0 0.00 0.00 0.00 52 1008.0
20260905181627 27 259 0.0 0.0 0.00 0.00 0.00 53 1008.0
20260905181529 27 261 0.0 0.0 0.00 0.00 0.00 51 1008.0
20260905181527 27 261 0.0 0.0 0.00 0.00 0.00 52 1008.0
20260905181427 27 261 0.0 0.0 0.00 0.00 0.00 51 1008.0
20260905181326 27 299 0.0 0.0 0.00 0.00 0.00 53 1008.0
20260905181303 27 232 0.0 0.0 0.00 0.00 0.00 53 1008.0
20260905181226 27 239 0.0 0.0 0.00 0.00 0.00 52 1008.0
20260905181125 27 229 0.0 0.0 0.00 0.00 0.00 52 1008.0
20260905181044 27 243 0.0 0.0 0.00 0.00 0.00 51 1008.1
20260905181024 27 272 0.0 0.0 0.00 0.00 0.00 51 1008.0
20260905181003 27 257 0.0 0.0 0.00 0.00 0.00 51 1008.1
20260905180851 27 283 0.0 0.0 0.00 0.00 0.00 54 1008.0
20260905180845 27 331 0.0 0.0 0.00 0.00 0.00 54 1008.0
20260905180837 27 266 0.0 0.0 0.00 0.00 0.00 54 1008.0
20260905180530 27 283 0.0 0.0 0.00 0.00 0.00 53 1008.0
20260905180526 27 306 0.0 0.0 0.00 0.00 0.00 53 1008.0
20260905180521 27 283 0.0 0.0 0.00 0.00 0.00 52 1008.0
20260905180421 27 326 0.0 0.0 0.00 0.00 0.00 53 1008.0
20260905180409 27 326 0.0 0.0 0.00 0.00 0.00 53 1008.1
20260905180220 27 264 0.0 0.0 0.00 0.00 0.00 53 1008.0
20260905180120 27 263 0.0 0.0 0.00 0.00 0.00 52 1008.1
20260905180030 27 275 0.0 0.0 0.00 0.00 0.00 51 1008.0
20260905180019 27 275 0.0 0.0 0.00 0.00 0.00 51 1008.0
20260905175918 27 263 0.0 0.0 0.00 0.00 0.00 50 1007.9
20260905175816 27 261 0.0 0.0 0.00 0.00 0.00 53 1008.0
20260905175800 27 261 0.0 0.0 0.00 0.00 0.00 50 1008.0
20260905175729 27 263 0.0 0.0 0.00 0.00 0.00 52 1007.9
20260905175725 27 261 0.0 0.0 0.00 0.00 0.00 52 1008.0
20260905175529 27 262 0.0 0.0 0.00 0.00 0.00 53 1008.0
20260905175516 27 263 0.0 0.0 0.00 0.00 0.00 53 1008.1
20260905175416 27 262 0.0 0.0 0.00 0.00 0.00 53 1008.0
20260905175316 27 266 0.0 0.0 0.00 0.00 0.00 53 1008.1
20260905175259 27 266 0.0 0.0 0.00 0.00 0.00 52 1008.2
20260905175216 27 266 0.0 0.0 0.00 0.00 0.00 50 1008.1
20260905175116 27 266 0.0 0.0 0.00 0.00 0.00 50 1008.2
20260905175034 27 259 0.0 0.0 0.00 0.00 0.00 50 1008.2
20260905175030 27 348 0.0 0.0 0.00 0.00 0.00 51 1008.3
20260905175024 27 265 0.0 0.0 0.00 0.00 0.00 50 1008.3
20260905174905 27 259 0.0 0.0 0.00 0.00 0.00 52 1008.2
20260905174714 27 262 0.0 0.0 0.00 0.00 0.00 50 1008.2
20260905174614 27 284 0.0 0.0 0.00 0.00 0.00 50 1008.2
20260905174544 27 311 0.0 0.0 0.00 0.00 0.00 51 1008.2
20260905174513 27 336 0.0 0.0 0.00 0.00 0.00 51 1008.3
20260905174413 27 285 0.0 0.0 0.00 0.00 0.00 50 1008.3
20260905174313 27 286 0.0 0.0 0.00 0.00 0.00 51 1008.3
20260905174256 27 286 0.0 0.0 0.00 0.00 0.00 51 1008.3
20260905174211 27 288 0.0 0.0 0.00 0.00 0.00 51 1008.3
20260905174111 27 280 0.0 0.0 0.00 0.00 0.00 49 1008.3
20260905174029 27 319 0.0 0.0 0.00 0.00 0.00 51 1008.2
20260905174011 27 282 0.0 0.0 0.00 0.00 0.00 51 1008.3
20260905173910 27 267 0.0 0.0 0.00 0.00 0.00 49 1008.2
20260905173810 27 261 0.0 0.0 0.00 0.00 0.00 51 1008.1
20260905173756 27 336 0.0 0.0 0.00 0.00 0.00 51 1008.2
20260905173708 27 340 0.0 0.0 0.00 0.00 0.00 52 1008.2
20260905173626 27 238 0.0 0.0 0.00 0.00 0.00 52 1008.2
20260905173529 27 240 0.0 0.0 0.00 0.00 0.00 51 1008.3
20260905173507 27 240 0.0 0.0 0.00 0.00 0.00 51 1008.2
20260905173409 27 239 0.0 0.0 0.00 0.00 0.00 51 1008.3
20260905173400 27 236 0.0 0.0 0.00 0.00 0.00 51 1008.3
20260905173221 27 284 0.0 0.0 0.00 0.00 0.00 52 1008.3
20260905173216 27 237 0.0 0.0 0.00 0.00 0.00 52 1008.4
20260905173044 27 286 0.0 0.0 0.00 0.00 0.00 53 1008.3
20260905173006 27 288 0.0 0.0 0.00 0.00 0.00 51 1008.3
20260905172906 27 252 0.0 0.0 0.00 0.00 0.00 54 1008.3
20260905172805 27 269 0.0 0.0 0.00 0.00 0.00 54 1008.4
20260905172753 27 269 0.0 0.0 0.00 0.00 0.00 54 1008.4
20260905172705 27 284 0.0 0.0 0.00 0.00 0.00 52 1008.4
20260905172626 27 283 0.0 0.0 0.00 0.00 0.00 51 1008.4
20260905172530 27 261 0.0 0.0 0.00 0.00 0.00 54 1008.3
20260905172513 27 289 0.0 0.0 0.00 0.00 0.00 54 1008.3
20260905172305 27 275 0.0 0.0 0.00 0.00 0.00 51 1008.3
20260905172252 27 275 0.0 0.0 0.00 0.00 0.00 51 1008.3
20260905172203 27 316 0.0 0.0 0.00 0.00 0.00 51 1008.3
20260905172101 27 290 0.0 0.0 0.00 0.00 0.00 52 1008.3
20260905172029 27 268 0.0 0.0 0.00 0.00 0.00 52 1008.3
20260905172001 27 268 0.0 0.0 0.00 0.00 0.00 52 1008.3
20260905171901 27 246 0.0 0.0 0.00 0.00 0.00 53 1008.4
20260905171801 27 317 0.0 0.0 0.00 0.00 0.00 55 1008.4
20260905171752 27 329 0.0 0.0 0.00 0.00 0.00 55 1008.4
20260905171714 27 255 0.0 0.0 0.00 0.00 0.00 53 1008.4
20260905171709 27 255 0.0 0.0 0.00 0.00 0.00 53 1008.3
20260905171530 27 294 0.0 0.0 0.00 0.00 0.00 52 1008.4
20260905171459 27 294 0.0 0.0 0.00 0.00 0.00 52 1008.4
20260905171359 27 279 0.0 0.0 0.00 0.00 0.00 51 1008.3
20260905171251 27 284 0.0 0.0 0.00 0.00 0.00 51 1008.3
20260905171212 27 283 0.0 0.0 0.00 0.00 0.00 50 1008.3
20260905171207 27 281 0.0 0.0 0.00 0.00 0.00 50 1008.4
20260905171029 27 272 0.0 0.0 0.00 0.00 0.00 52 1008.4
20260905170958 27 273 0.0 0.0 0.00 0.00 0.00 52 1008.4
20260905170857 27 273 0.0 0.0 0.00 0.00 0.00 53 1008.4
20260905170751 27 273 0.0 0.0 0.00 0.00 0.00 53 1008.4
20260905170656 27 255 0.0 0.0 0.00 0.00 0.00 52 1008.5
20260905170555 27 274 0.0 0.0 0.00 0.00 0.00 51 1008.4
20260905170540 27 330 0.0 0.0 0.00 0.00 0.00 54 1008.4
20260905170534 27 323 0.0 0.0 0.00 0.00 0.00 54 1008.4
20260905170530 26 257 0.0 0.0 0.00 0.00 0.00 54 1008.4
20260905170525 27 301 0.0 0.0 0.00 0.00 0.00 51 1008.4
20260905170516 27 269 0.0 0.0 0.00 0.00 0.00 52 1008.4
20260905170052 26 257 0.0 0.0 0.00 0.00 0.00 53 1008.4
20260905170044 27 257 0.0 0.0 0.00 0.00 0.00 53 1008.3
20260905165949 26 257 0.0 0.0 0.00 0.00 0.00 53 1008.3
20260905165849 26 257 0.0 0.0 0.00 0.00 0.00 52 1008.3
20260905165750 27 260 0.0 0.0 0.00 0.00 0.00 52 1008.4
20260905165648 27 0 0.0 0.0 0.00 0.00 0.00 52 1008.4
20260905165548 27 329 0.0 0.0 0.00 0.00 0.00 53 1008.4
20260905165529 27 296 0.0 0.0 0.00 0.00 0.00 57 1008.4
20260905165514 26 277 0.0 0.0 0.00 0.00 0.00 56 1008.4
20260905165447 27 302 0.0 0.0 0.00 0.00 0.00 57 1008.4
20260905165401 27 278 0.0 0.0 0.00 0.00 0.00 57 1008.3
20260905165246 26 277 0.0 0.0 0.00 0.00 0.00 56 1008.4
20260905165200 26 309 0.0 0.0 0.00 0.00 0.00 54 1008.4
20260905165155 26 277 0.0 0.0 0.00 0.00 0.00 56 1008.3
20260905165030 26 266 0.0 0.0 0.00 0.00 0.00 54 1008.4
20260905165013 26 9 0.0 0.0 0.00 0.00 0.00 55 1008.4
20260905164945 26 336 0.0 0.0 0.00 0.00 0.00 54 1008.4
20260905164859 26 350 0.0 0.0 0.00 0.00 0.00 56 1008.5
20260905164744 26 9 0.0 0.0 0.00 0.00 0.00 55 1008.4
20260905164644 26 9 0.0 0.0 0.00 0.00 0.00 52 1008.4
20260905164557 26 303 0.0 0.0 0.00 0.00 0.00 55 1008.6
20260905164552 26 290 0.0 0.0 0.00 0.00 0.00 54 1008.5
20260905164529 26 303 0.0 0.0 0.00 0.00 0.00 55 1008.6
20260905164357 26 324 0.0 0.0 0.00 0.00 0.00 55 1008.6
20260905164348 26 324 0.0 0.0 0.00 0.00 0.00 54 1008.6
20260905164142 26 324 0.0 0.0 0.00 0.00 0.00 54 1008.6
20260905164040 26 70 0.0 0.0 0.00 0.00 0.00 55 1008.6
20260905164029 26 70 0.0 0.0 0.00 0.00 0.00 54 1008.7
20260905163939 26 70 0.0 0.0 0.00 0.00 0.00 54 1008.7
20260905163838 26 254 0.0 0.0 0.00 0.00 0.00 55 1008.7
20260905163738 26 252 0.0 0.0 0.00 0.00 0.00 55 1008.7
20260905163637 26 252 0.0 0.0 0.00 0.00 0.00 54 1008.7
20260905163537 26 252 0.0 0.0 0.00 0.00 0.00 55 1008.7
20260905163530 26 251 0.0 0.0 0.00 0.00 0.00 56 1008.7
20260905163437 26 286 0.0 0.0 0.00 0.00 0.00 56 1008.7
20260905163337 26 291 0.0 0.0 0.00 0.00 0.00 56 1008.7
20260905163236 26 224 0.0 0.0 0.00 0.00 0.00 55 1008.7
20260905163135 26 277 0.0 0.0 0.00 0.00 0.00 55 1008.6
20260905163055 26 278 0.0 0.0 0.00 0.00 0.00 54 1008.6
20260905163029 26 277 0.0 0.0 0.00 0.00 0.00 53 1008.7
20260905162941 26 288 0.0 0.0 0.00 0.00 0.00 53 1008.7
20260905162741 26 294 0.0 0.0 0.00 0.00 0.00 52 1008.6
20260905162732 26 23 0.0 0.0 0.00 0.00 0.00 52 1008.6
20260905162645 26 323 0.0 0.0 0.00 0.00 0.00 54 1008.7
20260905162640 26 24 0.0 0.0 0.00 0.00 0.00 53 1008.7
20260905162530 26 309 0.0 0.0 0.00 0.00 0.00 52 1008.7
20260905162431 26 271 0.0 0.0 0.00 0.00 0.00 52 1008.7
20260905162330 26 300 0.0 0.0 0.00 0.00 0.00 53 1008.7
20260905162239 26 325 0.0 0.0 0.00 0.00 0.00 53 1008.8
20260905162230 26 269 0.0 0.0 0.00 0.00 0.00 52 1008.8
20260905162142 26 300 0.0 0.0 0.00 0.00 0.00 52 1008.9
20260905162137 26 319 0.0 0.0 0.00 0.00 0.00 52 1008.9
20260905162029 26 312 0.0 0.0 0.00 0.00 0.00 53 1008.8
20260905161928 26 331 0.0 0.0 0.00 0.00 0.00 53 1008.8
20260905161827 26 34 0.0 0.0 0.00 0.00 0.00 53 1008.8
20260905161810 26 153 0.0 0.0 0.00 0.00 0.00 54 1008.9
20260905161805 26 355 0.0 0.0 0.00 0.00 0.00 53 1008.8
20260905161758 26 355 0.0 0.0 0.00 0.00 0.00 55 1008.8
20260905161535 26 11 0.0 0.0 0.00 0.00 0.00 54 1008.7
20260905161529 26 17 0.0 0.0 0.00 0.00 0.00 54 1008.7
20260905161325 26 123 0.0 0.0 0.00 0.00 0.00 55 1008.7
20260905161245 26 61 0.0 0.0 0.00 0.00 0.00 54 1008.7
20260905161241 26 86 0.0 0.0 0.00 0.00 0.00 55 1008.7
20260905161234 26 36 0.0 0.0 0.00 0.00 0.00 55 1008.7
20260905161107 26 315 0.0 0.0 0.00 0.00 0.00 57 1006.5
20260905161101 26 279 0.0 0.0 0.00 0.00 0.00 54 1008.7
20260905161029 26 278 0.0 0.0 0.00 0.00 0.00 54 1006.5
20260905160947 26 296 0.0 0.0 0.00 0.00 0.00 55 1006.5
20260905160830 26 67 0.0 0.0 0.00 0.00 0.00 57 1006.5
20260905160623 26 317 0.0 0.0 0.00 0.00 0.00 56 1006.2
20260905160559 26 360 0.0 0.0 0.00 0.00 0.00 56 1005.7
20260905160523 26 286 0.0 0.0 0.00 0.00 0.00 56 1005.7
20260905160435 26 283 0.0 0.0 0.00 0.00 0.00 56 1005.7
20260905160430 26 0 0.0 0.0 0.00 0.00 0.00 54 1005.7
20260905160238 26 236 0.0 0.0 0.00 0.00 0.00 55 1005.8
20260905160221 26 281 0.0 0.0 0.00 0.00 0.00 55 1005.8
20260905160120 26 342 0.0 0.0 0.00 0.00 0.00 56 1005.8
20260905160046 26 284 0.0 0.0 0.00 0.00 0.00 57 1005.6
20260905160044 26 281 0.0 0.0 0.00 0.00 0.00 58 1005.6
20260905160041 26 286 0.0 0.0 0.00 0.00 0.00 56 1005.5
20260905160036 26 283 0.0 0.0 0.00 0.00 0.00 58 1005.6
20260905155740 26 286 0.0 0.0 0.00 0.00 0.00 54 1005.2
20260905155627 26 333 0.0 0.0 0.00 0.00 0.00 55 1005.2
20260905155529 26 315 0.0 0.0 0.00 0.00 0.00 57 1005.2
20260905155417 26 310 0.0 0.0 0.00 0.00 0.00 59 1005.1
20260905155344 26 315 0.0 0.0 0.00 0.00 0.00 57 1005.0
20260905155336 26 321 0.0 0.0 0.00 0.00 0.00 57 1005.1
20260905155225 26 321 0.0 0.0 0.00 0.00 0.00 57 1005.1
20260905155029 26 349 0.0 0.0 0.00 0.00 0.00 57 1004.9
20260905155015 26 313 0.0 0.0 0.00 0.00 0.00 55 1004.8
20260905154957 26 275 0.0 0.0 0.00 0.00 0.00 56 1004.7
20260905154915 26 327 0.0 0.0 0.00 0.00 0.00 56 1004.8
20260905154844 26 327 0.0 0.0 0.00 0.00 0.00 56 1004.7
20260905154730 26 19 0.0 0.0 0.00 0.00 0.00 55 1004.6
20260905154725 26 290 0.0 0.0 0.00 0.00 0.00 56 1004.7
20260905154559 26 326 0.0 0.0 0.00 0.00 0.00 55 1004.7
20260905154514 26 355 0.0 0.0 0.00 0.00 0.00 55 1004.7
20260905154428 26 19 0.0 0.0 0.00 0.00 0.00 57 1004.4
20260905154422 26 283 0.0 0.0 0.00 0.00 0.00 56 1004.6
20260905154213 26 22 0.0 0.0 0.00 0.00 0.00 57 1004.2
20260905154113 26 24 0.0 0.0 0.00 0.00 0.00 59 1004.2
20260905154029 26 342 0.0 0.0 0.00 0.00 0.00 58 1004.3
20260905154026 26 333 0.0 0.0 0.00 0.00 0.00 57 1004.2
20260905154021 26 342 0.0 0.0 0.00 0.00 0.00 58 1004.2
20260905153812 26 336 0.0 0.0 0.00 0.00 0.00 57 1004.0
20260905153731 26 277 0.0 0.0 0.00 0.00 0.00 57 1003.8
20260905153712 26 308 0.0 0.0 0.00 0.00 0.00 58 1003.8
20260905153610 26 321 0.0 0.0 0.00 0.00 0.00 58 1004.0
20260905153529 26 321 0.0 0.0 0.00 0.00 0.00 58 1003.8
20260905153509 26 321 0.0 0.0 0.00 0.00 0.00 58 1004.0
20260905153409 26 343 0.0 0.0 0.00 0.00 0.00 56 1003.7
20260905153307 26 313 0.0 0.0 0.00 0.00 0.00 56 1003.5
20260905153230 26 268 0.0 0.0 0.00 0.00 0.00 56 1003.8
20260905153208 26 267 0.0 0.0 0.00 0.00 0.00 56 1003.8
20260905153106 26 290 0.0 0.0 0.00 0.00 0.00 57 1003.6
20260905153029 26 343 0.0 0.0 0.00 0.00 0.00 56 1005.3
20260905153007 26 294 0.0 0.0 0.00 0.00 0.00 56 1003.6
20260905152906 26 310 0.0 0.0 0.00 0.00 0.00 56 1005.2
20260905152808 26 259 0.0 0.0 0.00 0.00 0.00 57 1005.2
20260905152727 26 5 0.0 0.0 0.00 0.00 0.00 56 1004.5
20260905152706 26 328 0.0 0.0 0.00 0.00 0.00 56 1004.5
20260905152620 26 290 0.0 0.0 0.00 0.00 0.00 57 1004.2
20260905152614 26 274 0.0 0.0 0.00 0.00 0.00 57 1004.5
20260905152530 26 290 0.0 0.0 0.00 0.00 0.00 57 1004.0
20260905152406 26 325 0.0 0.0 0.00 0.00 0.00 56 1003.9
20260905152306 26 283 0.0 0.0 0.00 0.00 0.00 56 1003.9
20260905152227 26 256 0.0 0.0 0.00 0.00 0.00 58 1003.9
20260905152219 26 273 0.0 0.0 0.00 0.00 0.00 58 1003.2
20260905152213 26 324 0.0 0.0 0.00 0.00 0.00 58 1003.7
20260905152030 26 340 0.0 0.0 0.00 0.00 0.00 57 1003.1
20260905152004 26 340 0.0 0.0 0.00 0.00 0.00 57 1003.0
20260905151903 26 26 0.0 0.0 0.00 0.00 0.00 56 1008.9
20260905151803 26 294 0.0 0.0 0.00 0.00 0.00 56 1008.9
20260905151727 26 296 0.0 0.0 0.00 0.00 0.00 58 1008.9
20260905151702 26 271 0.0 0.0 0.00 0.00 0.00 58 1008.7
20260905151603 26 240 0.0 0.0 0.00 0.00 0.00 58 1003.7
20260905151559 26 292 0.0 0.0 0.00 0.00 0.00 58 1003.8
20260905151517 26 274 0.0 0.0 0.00 0.00 0.00 58 1003.7
20260905151511 26 292 0.0 0.0 0.00 0.00 0.00 58 1003.7
20260905151303 26 317 0.0 0.0 0.00 0.00 0.00 57 1008.5
20260905151225 26 249 0.0 0.0 0.00 0.00 0.00 57 1008.5
20260905151201 26 318 0.0 0.0 0.00 0.00 0.00 57 1008.5
20260905151101 26 279 0.0 0.0 0.00 0.00 0.00 58 1008.5
20260905151029 26 282 0.0 0.0 0.00 0.00 0.00 59 1008.5
20260905151000 25 282 0.0 0.0 0.00 0.00 0.00 57 1008.5
20260905150901 25 297 0.0 0.0 0.00 0.00 0.00 58 1003.9
20260905150800 25 305 0.0 0.0 0.00 0.00 0.00 59 1003.9
20260905150727 25 299 0.0 0.0 0.00 0.00 0.00 60 1003.9
20260905150700 25 326 0.0 0.0 0.00 0.00 0.00 60 1003.4
20260905150559 25 294 0.0 0.0 0.00 0.00 0.00 60 1002.7
20260905150529 25 277 0.0 0.0 0.00 0.00 0.00 61 1002.8
20260905150520 25 281 0.0 0.0 0.00 0.00 0.00 61 1002.7
20260905150407 25 276 0.0 0.0 0.00 0.00 0.00 63 1002.7
20260905150224 25 294 0.0 0.0 0.00 0.00 0.00 63 1006.1
20260905150157 25 298 0.0 0.0 0.00 0.00 0.00 62 1006.1
20260905150057 25 311 0.0 0.0 0.00 0.00 0.00 63 1006.1
20260905150030 25 348 0.0 0.0 0.00 0.00 0.00 64 1003.7
20260905150010 25 348 0.0 0.0 0.00 0.00 0.00 63 1003.6
20260905150005 25 348 0.0 0.0 0.00 0.00 0.00 64 1003.6
20260905145811 25 348 0.0 0.0 0.00 0.00 0.00 60 1003.1
20260905145759 25 348 0.0 0.0 0.00 0.00 0.00 61 1003.6
20260905145553 25 0 0.0 0.0 0.00 0.00 0.00 62 1003.4
20260905145529 25 355 0.0 0.0 0.00 0.00 0.00 61 1002.9
20260905145506 25 351 0.0 0.0 0.00 0.00 0.00 60 1003.7
20260905145502 25 351 0.0 0.0 0.00 0.00 0.00 61 1002.8
20260905145251 25 227 0.0 0.0 0.00 0.00 0.00 62 1003.7
20260905145220 25 11 0.0 0.0 0.00 0.00 0.00 62 1003.7
20260905145150 25 0 0.0 0.0 0.00 0.00 0.00 62 1003.9
20260905145050 25 299 0.0 0.0 0.00 0.00 0.00 61 1004.4
20260905145030 25 320 0.0 0.0 0.00 0.00 0.00 62 1004.5
20260905144950 25 320 0.0 0.0 0.00 0.00 0.00 62 1004.4
20260905144849 25 320 0.0 0.0 0.00 0.00 0.00 61 1004.6
20260905144749 25 313 0.0 0.0 0.00 0.00 0.00 61 1004.0
20260905144721 25 317 0.0 0.0 0.00 0.00 0.00 61 1004.0
20260905144649 25 287 0.0 0.0 0.00 0.00 0.00 62 1003.9
20260905144549 25 335 0.0 0.0 0.00 0.00 0.00 63 1003.2
20260905144529 25 273 0.0 0.0 0.00 0.00 0.00 63 1003.6
20260905144449 25 273 0.0 0.0 0.00 0.00 0.00 63 1003.5
20260905144348 25 271 0.0 0.0 0.00 0.00 0.00 64 1004.1
20260905144248 25 295 0.0 0.0 0.00 0.00 0.00 63 1003.8
20260905144220 25 304 0.0 0.0 0.00 0.00 0.00 64 1003.8
20260905144147 25 45 0.0 0.0 0.00 0.00 0.00 64 1003.8
20260905144047 25 119 0.0 0.0 0.00 0.00 0.00 64 1003.5
20260905144029 25 119 0.0 0.0 0.00 0.00 0.00 63 1003.4
20260905143947 25 119 0.0 0.0 0.00 0.00 0.00 63 1003.3
20260905143845 25 71 0.0 0.0 0.00 0.00 0.00 64 1003.5
20260905143719 25 305 0.0 0.0 0.00 0.00 0.00 64 1003.7
20260905143645 25 305 0.0 0.0 0.00 0.00 0.00 64 1003.2
20260905143557 25 348 0.0 0.0 0.00 0.00 0.00 64 1003.2
20260905143553 25 306 0.0 0.0 0.00 0.00 0.00 64 1003.2
20260905143529 25 329 0.0 0.0 0.00 0.00 0.00 64 1003.3
20260905143437 24 316 0.0 0.0 0.00 0.00 0.00 65 1003.4
20260905143344 24 321 0.0 0.0 0.00 0.00 0.00 65 1003.1
20260905143326 24 316 0.0 0.0 0.00 0.00 0.00 65 1003.4
20260905143155 24 317 0.0 0.0 0.00 0.00 0.00 64 1004.0
20260905143151 24 316 0.0 0.0 0.00 0.00 0.00 65 1003.4
20260905143030 24 317 0.0 0.0 0.00 0.00 0.00 64 1003.3
20260905142958 24 303 0.0 0.0 0.00 0.00 0.00 66 1003.2
20260905142954 24 302 0.0 0.0 0.00 0.00 0.00 65 1003.2
20260905142949 24 317 0.0 0.0 0.00 0.00 0.00 67 1003.2
20260905142825 24 302 0.0 0.0 0.00 0.00 0.00 65 1003.2
20260905142638 24 302 0.0 0.0 0.00 0.00 0.00 65 1003.2
20260905142536 24 302 0.0 0.0 0.00 0.00 0.00 64 1003.2
20260905142530 24 313 0.0 0.0 0.00 0.00 0.00 65 1003.3
20260905142435 24 347 0.0 0.0 0.00 0.00 0.00 67 1003.2
20260905142335 24 281 0.0 0.0 0.00 0.00 0.00 67 1003.3
20260905142236 24 21 0.0 0.0 0.00 0.00 0.00 69 1003.6
20260905142216 24 21 0.0 0.0 0.00 0.00 0.00 69 1003.6
20260905142133 24 21 0.0 0.0 0.00 0.00 0.00 68 1003.4
20260905142033 23 22 0.0 0.0 0.00 0.00 0.00 67 1003.2
20260905142029 23 350 0.0 0.0 0.00 0.00 0.00 68 1004.7
20260905141932 23 350 0.0 0.0 0.00 0.00 0.00 68 1004.6
20260905141832 23 344 0.0 0.0 0.00 0.00 0.00 67 1004.6
20260905141732 23 344 0.0 0.0 0.00 0.00 0.00 68 1004.2
20260905141715 23 323 0.0 0.0 0.00 0.00 0.00 68 1004.2
20260905141631 23 269 0.0 0.0 0.00 0.00 0.00 69 1003.6
20260905141531 23 269 0.0 0.0 0.00 0.00 0.00 69 1003.3
20260905141529 23 269 0.0 0.0 0.00 0.00 0.00 68 1006.4
20260905141431 23 36 0.0 0.0 0.00 0.00 0.00 68 1006.4
20260905141329 23 328 0.0 0.0 0.00 0.00 0.00 70 1006.4
20260905141227 23 340 0.0 0.0 0.00 0.00 0.00 69 1006.4
20260905141214 23 340 0.0 0.0 0.00 0.00 0.00 69 1006.4
20260905141126 23 341 0.0 0.0 0.00 0.00 0.00 69 1005.9
20260905141030 23 342 0.0 0.0 0.00 0.00 0.00 69 1004.5
20260905141026 23 341 0.0 0.0 0.00 0.00 0.00 71 1005.9
20260905140925 23 342 0.0 0.0 0.00 0.00 0.00 68 1004.4
20260905140824 23 342 0.0 0.0 0.00 0.00 0.00 67 1004.4
20260905140715 23 78 0.0 0.0 0.00 0.00 0.00 68 1004.4
20260905140621 23 80 0.0 0.0 0.00 0.00 0.00 67 1007.1
20260905140530 23 342 0.0 0.0 0.00 0.00 0.00 67 1007.7
20260905140521 23 342 0.0 0.0 0.00 0.00 0.00 67 1007.1
20260905140421 23 11 0.0 0.0 0.00 0.00 0.00 67 1007.6
20260905140320 23 355 0.0 0.0 0.00 0.00 0.00 69 1008.1
20260905140212 23 269 0.0 0.0 0.00 0.00 0.00 68 1008.0
20260905140132 23 30 0.0 0.0 0.00 0.00 0.00 68 1007.3
20260905140128 23 293 0.0 0.0 0.00 0.00 0.00 68 1007.9
20260905140044 23 317 0.0 0.0 0.00 0.00 0.00 68 1007.3
20260905135930 23 328 0.0 0.0 0.00 0.00 0.00 67 1006.6
20260905135926 23 317 0.0 0.0 0.00 0.00 0.00 68 1007.3
20260905135712 23 298 0.0 0.0 0.00 0.00 0.00 69 1004.3
20260905135616 23 53 0.0 0.0 0.00 0.00 0.00 71 1004.3
20260905135544 23 53 0.0 0.0 0.00 0.00 0.00 70 1003.9
20260905135515 23 53 0.0 0.0 0.00 0.00 0.00 70 1004.3
20260905135414 23 49 0.0 0.0 0.00 0.00 0.00 71 1003.8
20260905135313 23 309 0.0 0.0 0.00 0.00 0.00 70 1003.6
20260905135214 23 309 0.0 0.0 0.00 0.00 0.00 70 1003.9
20260905135112 23 336 0.0 0.0 0.00 0.00 0.00 70 1003.5
20260905135030 23 336 0.0 0.0 0.00 0.00 0.00 69 1005.5
20260905135012 23 336 0.0 0.0 0.00 0.00 0.00 69 1005.5
20260905134938 23 319 0.0 0.0 0.00 0.00 0.00 70 1005.5
20260905134825 23 0 0.0 0.0 0.00 0.00 0.00 71 1006.4
20260905134711 23 324 0.0 0.0 0.00 0.00 0.00 71 1006.4
20260905134610 23 313 0.0 0.0 0.00 0.00 0.00 71 1005.9
20260905134530 23 313 0.0 0.0 0.00 0.00 0.00 74 1006.7
20260905134507 23 313 0.0 0.0 0.00 0.00 0.00 74 1006.3
20260905134406 23 355 0.0 0.0 0.00 0.00 0.00 74 1006.7
20260905134306 23 351 0.0 0.0 0.00 0.00 0.00 72 1006.7
20260905134212 23 355 0.0 0.0 0.00 0.00 0.00 72 1006.7
20260905134206 23 322 0.0 0.0 0.00 0.00 0.00 72 1006.4
20260905134105 23 313 0.0 0.0 0.00 0.00 0.00 73 1005.9
20260905134030 23 319 0.0 0.0 0.00 0.00 0.00 74 1006.1
20260905134019 23 22 0.0 0.0 0.00 0.00 0.00 74 1006.1
20260905134015 23 319 0.0 0.0 0.00 0.00 0.00 74 1005.9
20260905133825 23 5 0.0 0.0 0.00 0.00 0.00 72 1005.8
20260905133819 23 5 0.0 0.0 0.00 0.00 0.00 73 1005.1
20260905133810 23 9 0.0 0.0 0.00 0.00 0.00 72 1005.1
20260905133604 23 338 0.0 0.0 0.00 0.00 0.00 73 1005.8